M I D A S
Marine Information and Data Acquisition System
Tripno 989 of the Zeeleeuw from 2005-11-28 07:35:38 to 2005-11-28 14:38:53
Back to CruiseResearch ActivitiesStationsMapUnderway DataData graphs

EquipmentUnitsComment
TimeDGPSUTC
LatitudeDGPSDM.mWGS84
LongitudeDGPSDM.mWGS84
TemperatureSBE03/SBE38deg celciusITS90
ConductivitySBE21S/mITS90
SalinitySBE21 Practical Salinity Units
ChlorophylAChelsea fluorimeterg/lCalibrated in Aceton
Missing or incorrect values are displayed as -999
Sea surface data collected by the RV Zeeleeuw from 2005-11-28 07:21:17 to 2005-11-28 14:53:13
                                                                                    Next 1000 lines
Time Latitude Longitude Temperature Conductivity Salinity ChlorophylA
2005-11-28 07:21:27 51°13.58 2°56.135 -999 4.456019 32.277266 -1.219471
2005-11-28 07:21:32 51°13.58 2°56.135 -999 4.455916 32.276426 -1.253181
2005-11-28 07:21:37 51°13.58 2°56.135 -999 4.455916 32.276426 -1.219471
2005-11-28 07:21:42 51°13.58 2°56.136 -999 4.455916 32.27702 -1.219471
2005-11-28 07:21:47 51°13.58 2°56.136 -999 4.455916 32.27702 -1.219471
2005-11-28 07:21:52 51°13.58 2°56.136 -999 4.455916 32.27702 -1.253181
2005-11-28 07:21:58 51°13.58 2°56.136 -999 4.455812 32.276179 -1.253181
2005-11-28 07:22:02 51°13.58 2°56.136 -999 4.455812 32.276774 -1.253181
2005-11-28 07:22:07 51°13.581 2°56.136 -999 4.455812 32.276774 -1.253181
2005-11-28 07:22:12 51°13.581 2°56.136 -999 4.455812 32.276774 -1.253181
2005-11-28 07:22:16 51°13.581 2°56.137 -999 4.455812 32.276774 -1.253181
2005-11-28 07:22:22 51°13.581 2°56.136 -999 4.455812 32.276774 -1.253181
2005-11-28 07:22:27 51°13.58 2°56.135 -999 4.455708 32.276527 -1.253181
2005-11-28 07:22:32 51°13.581 2°56.135 -999 4.455708 32.277121 -1.253181
2005-11-28 07:22:36 51°13.581 2°56.135 -999 4.455604 32.276281 -1.253181
2005-11-28 07:22:42 51°13.581 2°56.135 -999 4.455604 32.276281 -1.253181
2005-11-28 07:22:47 51°13.581 2°56.135 -999 4.455604 32.276281 -1.253181
2005-11-28 07:22:52 51°13.581 2°56.136 -999 4.455604 32.276281 -1.253181
2005-11-28 07:22:56 51°13.581 2°56.136 -999 4.455605 32.276875 -1.253181
2005-11-28 07:23:02 51°13.581 2°56.136 -999 4.455501 32.276629 -1.219471
2005-11-28 07:23:07 51°13.581 2°56.136 -999 4.455501 32.276629 -1.253181
2005-11-28 07:23:12 51°13.581 2°56.137 -999 4.455501 32.276629 -1.253181
2005-11-28 07:23:16 51°13.581 2°56.136 -999 4.455501 32.276629 -1.253181
2005-11-28 07:23:22 51°13.581 2°56.136 -999 4.455397 32.276383 -1.253181
2005-11-28 07:23:27 51°13.581 2°56.136 -999 4.455397 32.276383 -1.219471
2005-11-28 07:23:32 51°13.581 2°56.136 -999 4.455397 32.276383 -1.219471
2005-11-28 07:23:36 51°13.582 2°56.136 -999 4.455397 32.276977 -1.253181
2005-11-28 07:23:42 51°13.582 2°56.136 -999 4.455293 32.276137 -1.253181
2005-11-28 07:23:47 51°13.582 2°56.136 -999 4.455293 32.276137 -1.253181
2005-11-28 07:23:52 51°13.582 2°56.136 -999 4.455293 32.276137 -1.253181
2005-11-28 07:23:56 51°13.582 2°56.136 -999 4.455293 32.276137 -1.253181
2005-11-28 07:24:02 51°13.582 2°56.136 -999 4.455293 32.276731 -1.253181
2005-11-28 07:24:07 51°13.582 2°56.136 -999 4.45519 32.27589 -1.253181
2005-11-28 07:24:12 51°13.582 2°56.136 -999 4.45519 32.276485 -1.253181
2005-11-28 07:24:16 51°13.582 2°56.136 -999 4.45519 32.276485 -1.253181
2005-11-28 07:24:22 51°13.582 2°56.137 -999 4.45519 32.276485 -1.253181
2005-11-28 07:24:27 51°13.582 2°56.137 -999 4.45519 32.276485 -1.253181
2005-11-28 07:24:32 51°13.582 2°56.137 -999 4.455086 32.276238 -1.253181
2005-11-28 07:24:36 51°13.582 2°56.137 -999 4.455086 32.276238 -1.253181
2005-11-28 07:24:42 51°13.582 2°56.137 -999 4.455086 32.276238 -1.253181
2005-11-28 07:24:47 51°13.582 2°56.137 -999 4.455086 32.276238 -1.253181
2005-11-28 07:24:52 51°13.582 2°56.137 -999 4.454982 32.275992 -1.253181
2005-11-28 07:24:56 51°13.582 2°56.137 -999 4.454982 32.275992 -1.253181
2005-11-28 07:25:02 51°13.582 2°56.137 -999 4.454982 32.275992 -1.253181
2005-11-28 07:25:07 51°13.582 2°56.137 -999 4.454878 32.275746 -1.219471
2005-11-28 07:25:12 51°13.582 2°56.136 -999 4.454878 32.275746 -1.253181
2005-11-28 07:25:16 51°13.582 2°56.136 -999 4.454878 32.275746 -1.253181
2005-11-28 07:25:22 51°13.582 2°56.136 -999 4.454878 32.275746 -1.253181
2005-11-28 07:25:27 51°13.582 2°56.136 -999 4.454878 32.27634 -1.253181
2005-11-28 07:25:32 51°13.582 2°56.136 -999 4.454775 32.2755 -1.253181
2005-11-28 07:25:37 51°13.582 2°56.136 -999 4.454775 32.2755 -1.253181
2005-11-28 07:25:42 51°13.582 2°56.136 -999 4.454775 32.2755 -1.253181
2005-11-28 07:25:47 51°13.582 2°56.136 -999 4.454775 32.2755 -1.253181
2005-11-28 07:25:52 51°13.582 2°56.136 -999 4.454775 32.276094 -1.253181
2005-11-28 07:25:57 51°13.582 2°56.137 -999 4.454671 32.275253 -1.253181
2005-11-28 07:26:02 51°13.582 2°56.137 -999 4.454671 32.275253 -1.253181
2005-11-28 07:26:07 51°13.582 2°56.137 -999 4.454671 32.275848 -1.253181
2005-11-28 07:26:12 51°13.582 2°56.137 -999 4.454671 32.275848 -1.253181
2005-11-28 07:26:16 51°13.582 2°56.136 -999 4.454671 32.275848 -1.253181
2005-11-28 07:26:22 51°13.582 2°56.136 -999 4.454567 32.275007 -1.219471
2005-11-28 07:26:27 51°13.582 2°56.136 -999 4.454567 32.275601 -1.253181
2005-11-28 07:26:32 51°13.582 2°56.136 -999 4.454463 32.274761 -1.253181
2005-11-28 07:26:36 51°13.582 2°56.135 -999 4.454463 32.274761 -1.253181
2005-11-28 07:26:42 51°13.582 2°56.135 -999 4.454463 32.275355 -1.253181
2005-11-28 07:26:47 51°13.582 2°56.136 -999 4.454463 32.275355 -1.253181
2005-11-28 07:26:52 51°13.582 2°56.136 -999 4.454463 32.275355 -1.219471
2005-11-28 07:26:58 51°13.582 2°56.136 -999 4.45436 32.275109 -1.253181
2005-11-28 07:27:02 51°13.582 2°56.137 -999 4.45436 32.275109 -1.253181
2005-11-28 07:27:07 51°13.581 2°56.137 -999 4.45436 32.275109 -1.219471
2005-11-28 07:27:12 51°13.581 2°56.137 -999 4.454256 32.274268 -1.253181
2005-11-28 07:27:18 51°13.581 2°56.137 -999 4.454256 32.274268 -1.253181
2005-11-28 07:27:22 51°13.581 2°56.137 -999 4.454256 32.274268 -1.219471
2005-11-28 07:27:27 51°13.581 2°56.137 -999 4.454256 32.274863 -1.253181
2005-11-28 07:27:32 51°13.581 2°56.137 -999 4.454256 32.274863 -1.219471
2005-11-28 07:27:36 51°13.581 2°56.137 -999 4.454152 32.274616 -1.253181
2005-11-28 07:27:42 51°13.581 2°56.137 -999 4.454152 32.274616 -1.253181
2005-11-28 07:27:47 51°13.581 2°56.137 -999 4.454152 32.274616 -1.253181
2005-11-28 07:27:52 51°13.581 2°56.137 -999 4.454152 32.274616 -1.253181
2005-11-28 07:27:58 51°13.581 2°56.137 -999 4.454048 32.27437 -1.253181
2005-11-28 07:28:02 51°13.581 2°56.137 -999 4.454048 32.27437 -1.253181
2005-11-28 07:28:07 51°13.581 2°56.137 -999 4.454048 32.27437 -1.253181
2005-11-28 07:28:12 51°13.581 2°56.137 -999 4.454048 32.27437 -1.253181
2005-11-28 07:28:16 51°13.581 2°56.137 -999 4.454048 32.27437 -1.253181
2005-11-28 07:28:22 51°13.581 2°56.138 -999 4.454048 32.274965 -1.219471
2005-11-28 07:28:27 51°13.581 2°56.138 -999 4.453945 32.274124 -1.253181
2005-11-28 07:28:32 51°13.581 2°56.137 -999 4.453945 32.274718 -1.253181
2005-11-28 07:28:36 51°13.581 2°56.137 -999 4.453945 32.274718 -1.253181
2005-11-28 07:28:42 51°13.581 2°56.137 -999 4.453841 32.273878 -1.219471
2005-11-28 07:28:47 51°13.58 2°56.137 -999 4.453841 32.273878 -1.219471
2005-11-28 07:28:52 51°13.58 2°56.137 -999 4.453841 32.274472 -1.219471
2005-11-28 07:28:56 51°13.58 2°56.137 -999 4.453841 32.274472 -1.253181
2005-11-28 07:29:02 51°13.58 2°56.137 -999 4.453841 32.274472 -1.219471
2005-11-28 07:29:07 51°13.58 2°56.137 -999 4.453737 32.274226 -1.253181
2005-11-28 07:29:12 51°13.58 2°56.137 -999 4.453737 32.274226 -1.253181
2005-11-28 07:29:16 51°13.58 2°56.137 -999 4.453737 32.274226 -1.253181
2005-11-28 07:29:22 51°13.58 2°56.137 -999 4.453737 32.274226 -1.253181
2005-11-28 07:29:27 51°13.58 2°56.136 -999 4.453633 32.27398 -1.253181
2005-11-28 07:29:32 51°13.581 2°56.136 -999 4.453633 32.27398 -1.219471
2005-11-28 07:29:36 51°13.58 2°56.136 -999 4.453633 32.27398 -1.253181
2005-11-28 07:29:42 51°13.581 2°56.136 -999 4.453633 32.27398 -1.253181
2005-11-28 07:29:48 51°13.581 2°56.136 -999 4.453633 32.27398 -1.253181
2005-11-28 07:29:52 51°13.581 2°56.136 -999 4.45353 32.273733 -1.219471
2005-11-28 07:29:58 51°13.581 2°56.135 -999 4.45353 32.273733 -1.253181
2005-11-28 07:30:02 51°13.581 2°56.136 -999 4.45353 32.273733 -1.219471
2005-11-28 07:30:08 51°13.58 2°56.136 -999 4.45353 32.274328 -1.219471
2005-11-28 07:30:12 51°13.58 2°56.135 -999 4.45353 32.274328 -1.253181
2005-11-28 07:30:17 51°13.58 2°56.135 -999 4.45353 32.274328 -1.253181
2005-11-28 07:30:23 51°13.58 2°56.136 -999 4.453426 32.273487 -1.219471
2005-11-28 07:30:28 51°13.58 2°56.136 -999 4.453426 32.273487 -1.219471
2005-11-28 07:30:32 51°13.58 2°56.136 -999 4.453426 32.273487 -1.253181
2005-11-28 07:30:38 51°13.58 2°56.136 -999 4.453322 32.273241 -1.219471
2005-11-28 07:30:43 51°13.58 2°56.136 -999 4.453322 32.273835 -1.253181
2005-11-28 07:30:48 51°13.581 2°56.136 -999 4.453322 32.273835 -1.253181
2005-11-28 07:30:52 51°13.581 2°56.136 -999 4.453322 32.273835 -1.253181
2005-11-28 07:30:58 51°13.581 2°56.136 -999 4.453218 32.272994 -1.253181
2005-11-28 07:31:02 51°13.581 2°56.136 -999 4.453218 32.272994 -1.253181
2005-11-28 07:31:07 51°13.581 2°56.136 -999 4.453218 32.273589 -1.253181
2005-11-28 07:31:12 51°13.581 2°56.136 -999 4.453218 32.273589 -1.253181
2005-11-28 07:31:18 51°13.58 2°56.136 -999 4.453218 32.273589 -1.253181
2005-11-28 07:31:22 51°13.58 2°56.136 -999 4.453115 32.272748 -1.253181
2005-11-28 07:31:27 51°13.58 2°56.137 -999 4.453115 32.272748 -1.253181
2005-11-28 07:31:32 51°13.58 2°56.137 -999 4.453115 32.272748 -1.219471
2005-11-28 07:31:36 51°13.58 2°56.137 -999 4.453115 32.273343 -1.253181
2005-11-28 07:31:42 51°13.58 2°56.137 -999 4.453115 32.273343 -1.253181
2005-11-28 07:31:47 51°13.58 2°56.137 -999 4.453115 32.273343 -1.253181
2005-11-28 07:31:52 51°13.58 2°56.137 -999 4.453011 32.273096 -1.253181
2005-11-28 07:31:58 51°13.58 2°56.137 -999 4.453011 32.273096 -1.253181
2005-11-28 07:32:02 51°13.58 2°56.137 -999 4.453011 32.273096 -1.253181
2005-11-28 07:32:07 51°13.58 2°56.137 -999 4.453011 32.273691 -1.253181
2005-11-28 07:32:12 51°13.58 2°56.137 -999 4.452907 32.273445 -1.253181
2005-11-28 07:32:16 51°13.581 2°56.137 -999 4.452907 32.273445 -1.253181
2005-11-28 07:32:22 51°13.581 2°56.137 -999 4.452907 32.27285 -1.219471
2005-11-28 07:32:27 51°13.581 2°56.137 -999 4.452907 32.273445 -1.253181
2005-11-28 07:32:32 51°13.581 2°56.137 -999 4.452907 32.273445 -1.253181
2005-11-28 07:32:36 51°13.581 2°56.137 -999 4.452803 32.272604 -1.253181
2005-11-28 07:32:42 51°13.581 2°56.137 -999 4.452803 32.272604 -1.253181
2005-11-28 07:32:47 51°13.581 2°56.138 -999 4.452803 32.272604 -1.253181
2005-11-28 07:32:52 51°13.581 2°56.138 -999 4.452803 32.273198 -1.253181
2005-11-28 07:32:56 51°13.581 2°56.138 -999 4.4527 32.272358 -1.253181
2005-11-28 07:33:02 51°13.581 2°56.138 -999 4.4527 32.272952 -1.253181
2005-11-28 07:33:07 51°13.581 2°56.138 -999 4.4527 32.272952 -1.253181
2005-11-28 07:33:12 51°13.581 2°56.138 -999 4.4527 32.272952 -1.253181
2005-11-28 07:33:16 51°13.581 2°56.138 -999 4.4527 32.272952 -1.253181
2005-11-28 07:33:22 51°13.581 2°56.137 -999 4.4527 32.273547 -1.253181
2005-11-28 07:33:27 51°13.581 2°56.137 -999 4.452596 32.272706 -1.253181
2005-11-28 07:33:32 51°13.581 2°56.137 -999 4.452596 32.272706 -1.253181
2005-11-28 07:33:36 51°13.581 2°56.137 -999 4.452596 32.272706 -1.253181
2005-11-28 07:33:42 51°13.581 2°56.135 -999 4.452492 32.271865 -1.219471
2005-11-28 07:33:47 51°13.581 2°56.135 -999 4.452492 32.271865 -1.219471
2005-11-28 07:33:52 51°13.581 2°56.135 -999 4.452492 32.27246 -1.219471
2005-11-28 07:33:56 51°13.581 2°56.135 -999 4.452492 32.27246 -1.253181
2005-11-28 07:34:02 51°13.581 2°56.135 -999 4.452492 32.273054 -1.219471
2005-11-28 07:34:07 51°13.581 2°56.135 -999 4.452388 32.272213 -1.253181
2005-11-28 07:34:12 51°13.581 2°56.136 -999 4.452388 32.272213 -1.253181
2005-11-28 07:34:16 51°13.581 2°56.136 -999 4.452388 32.272213 -1.253181
2005-11-28 07:34:22 51°13.58 2°56.136 -999 4.452388 32.272213 -1.219471
2005-11-28 07:34:27 51°13.58 2°56.136 -999 4.452388 32.272808 -1.219471
2005-11-28 07:34:32 51°13.58 2°56.137 -999 4.452285 32.271967 -1.253181
2005-11-28 07:34:36 51°13.58 2°56.136 -999 4.452285 32.271967 -1.253181
2005-11-28 07:34:42 51°13.58 2°56.136 -999 4.452285 32.272562 -1.253181
2005-11-28 07:34:47 51°13.58 2°56.136 -999 4.452285 32.272562 -1.253181
2005-11-28 07:34:52 51°13.58 2°56.136 -999 4.452285 32.272562 -1.253181
2005-11-28 07:34:57 51°13.579 2°56.136 -999 4.452285 32.272562 -1.253181
2005-11-28 07:35:02 51°13.58 2°56.136 -999 4.452181 32.271721 -1.253181
2005-11-28 07:35:07 51°13.58 2°56.136 -999 4.452181 32.272315 -1.253181
2005-11-28 07:35:12 51°13.58 2°56.136 -999 4.452181 32.272315 -1.253181
2005-11-28 07:35:16 51°13.58 2°56.136 -999 4.452181 32.272315 -1.253181
2005-11-28 07:35:22 51°13.58 2°56.136 -999 4.452077 32.271474 -1.253181
2005-11-28 07:35:27 51°13.58 2°56.136 -999 4.452077 32.272069 -1.219471
2005-11-28 07:35:32 51°13.58 2°56.137 -999 4.452077 32.272069 -1.253181
2005-11-28 07:35:36 51°13.58 2°56.137 -999 4.452077 32.272069 -1.253181
2005-11-28 07:35:42 51°13.58 2°56.137 -999 4.452077 32.272664 -1.219471
2005-11-28 07:35:47 51°13.58 2°56.137 -999 4.452077 32.272664 -1.219471
2005-11-28 07:35:52 51°13.58 2°56.137 -999 4.451973 32.271228 -1.253181
2005-11-28 07:35:56 51°13.58 2°56.137 -999 4.451973 32.271823 -1.219471
2005-11-28 07:36:02 51°13.58 2°56.137 -999 4.451973 32.271823 -1.253181
2005-11-28 07:36:07 51°13.58 2°56.137 -999 4.451973 32.271823 -1.253181
2005-11-28 07:36:12 51°13.58 2°56.137 -999 4.45187 32.271576 -1.219471
2005-11-28 07:36:16 51°13.58 2°56.137 -999 4.45187 32.271576 -1.219471
2005-11-28 07:36:22 51°13.58 2°56.137 -999 4.45187 32.271576 -1.253181
2005-11-28 07:36:27 51°13.579 2°56.137 -999 4.45187 32.271576 -1.219471
2005-11-28 07:36:32 51°13.579 2°56.138 -999 4.45187 32.271576 -1.253181
2005-11-28 07:36:36 51°13.579 2°56.138 -999 4.45187 32.272171 -1.219471
2005-11-28 07:36:42 51°13.579 2°56.138 -999 4.451766 32.27133 -1.219471
2005-11-28 07:36:47 51°13.579 2°56.138 -999 4.451766 32.27133 -1.219471
2005-11-28 07:36:52 51°13.579 2°56.138 -999 4.451766 32.271925 -1.253181
2005-11-28 07:36:56 51°13.579 2°56.136 -999 4.451766 32.271925 -1.253181
2005-11-28 07:37:02 51°13.58 2°56.133 -999 4.451766 32.271925 -1.253181
2005-11-28 07:37:07 51°13.581 2°56.13 -999 4.451766 32.272519 -1.219471
2005-11-28 07:37:12 51°13.581 2°56.126 -999 4.451766 32.272519 -1.253181
2005-11-28 07:37:18 51°13.583 2°56.12 -999 4.451766 32.272519 -1.253181
2005-11-28 07:37:22 51°13.584 2°56.116 -999 4.451662 32.271678 -1.219471
2005-11-28 07:37:27 51°13.585 2°56.11 -999 4.448653 32.247886 -1.219471
2005-11-28 07:37:32 51°13.587 2°56.103 -999 4.450521 32.263022 -1.219471
2005-11-28 07:37:38 51°13.589 2°56.095 -999 4.450936 32.266386 -1.253181
2005-11-28 07:37:42 51°13.59 2°56.089 -999 4.45104 32.267227 -1.253181
2005-11-28 07:37:48 51°13.593 2°56.08 -999 4.45104 32.267227 -1.253181
2005-11-28 07:37:52 51°13.595 2°56.074 -999 4.45104 32.267227 -1.253181
2005-11-28 07:37:58 51°13.598 2°56.064 -999 4.451143 32.268663 -1.253181
2005-11-28 07:38:02 51°13.6 2°56.058 -999 4.451143 32.268663 -1.219471
2005-11-28 07:38:08 51°13.604 2°56.047 -999 4.451143 32.268663 -1.219471
2005-11-28 07:38:12 51°13.607 2°56.04 -999 4.451143 32.268663 -1.253181
2005-11-28 07:38:18 51°13.61 2°56.029 -999 4.451143 32.268663 -1.253181
2005-11-28 07:38:23 51°13.613 2°56.02 -999 4.451143 32.268663 -1.253181
2005-11-28 07:38:28 51°13.616 2°56.011 -999 4.451143 32.269257 -1.253181
2005-11-28 07:38:32 51°13.618 2°56.004 -999 4.451143 32.269257 -1.253181
2005-11-28 07:38:38 51°13.622 2°55.993 -999 4.451143 32.269257 -1.253181
2005-11-28 07:38:43 51°13.624 2°55.986 -999 4.451143 32.269852 -1.253181
2005-11-28 07:38:48 51°13.629 2°55.974 -999 4.451143 32.269852 -1.253181
2005-11-28 07:38:52 51°13.632 2°55.966 -999 4.451143 32.269852 -1.219471
2005-11-28 07:38:56 51°13.635 2°55.959 -999 4.451143 32.269852 -1.219471
2005-11-28 07:39:02 51°13.64 2°55.947 -999 4.451143 32.270447 -1.253181
2005-11-28 07:39:08 51°13.645 2°55.935 -999 4.451143 32.270447 -1.253181
2005-11-28 07:39:12 51°13.648 2°55.928 -999 4.45104 32.269606 -1.253181
2005-11-28 07:39:18 51°13.653 2°55.916 -999 4.45104 32.269606 -1.253181
2005-11-28 07:39:23 51°13.656 2°55.907 -999 4.45104 32.270201 -1.219471
2005-11-28 07:39:28 51°13.66 2°55.897 -999 4.45104 32.270201 -1.253181
2005-11-28 07:39:32 51°13.663 2°55.889 -999 4.45104 32.270795 -1.253181
2005-11-28 07:39:38 51°13.667 2°55.877 -999 4.45104 32.270201 -1.253181
2005-11-28 07:39:42 51°13.669 2°55.869 -999 4.45104 32.270795 -1.219471
2005-11-28 07:39:47 51°13.672 2°55.859 -999 4.45104 32.270795 -1.219471
2005-11-28 07:39:52 51°13.675 2°55.849 -999 4.45104 32.270795 -1.253181
2005-11-28 07:39:58 51°13.679 2°55.837 -999 4.45104 32.270795 -1.253181
2005-11-28 07:40:02 51°13.681 2°55.83 -999 4.450936 32.269954 -1.219471
2005-11-28 07:40:08 51°13.683 2°55.818 -999 4.450936 32.269954 -1.253181
2005-11-28 07:40:12 51°13.685 2°55.811 -999 4.450936 32.270549 -1.253181
2005-11-28 07:40:18 51°13.687 2°55.8 -999 4.450936 32.270549 -1.253181
2005-11-28 07:40:22 51°13.688 2°55.794 -999 4.450936 32.271144 -1.219471
2005-11-28 07:40:27 51°13.69 2°55.785 -999 4.450936 32.271144 -1.253181
2005-11-28 07:40:32 51°13.691 2°55.777 -999 4.450936 32.271144 -1.219471
2005-11-28 07:40:38 51°13.692 2°55.767 -999 4.450832 32.270897 -1.219471
2005-11-28 07:40:42 51°13.692 2°55.761 -999 4.450832 32.270897 -1.253181
2005-11-28 07:40:48 51°13.693 2°55.752 -999 4.450832 32.270897 -1.253181
2005-11-28 07:40:52 51°13.693 2°55.748 -999 4.450832 32.270897 -1.253181
2005-11-28 07:40:58 51°13.693 2°55.743 -999 4.450832 32.270303 -1.253181
2005-11-28 07:41:03 51°13.693 2°55.742 -999 4.450832 32.270897 -1.219471
2005-11-28 07:41:08 51°13.694 2°55.742 -999 4.450832 32.270897 -1.253181
2005-11-28 07:41:12 51°13.694 2°55.742 -999 4.450728 32.270056 -1.219471
2005-11-28 07:41:18 51°13.695 2°55.742 -999 4.450728 32.270056 -1.219471
2005-11-28 07:41:23 51°13.696 2°55.744 -999 4.450728 32.270651 -1.253181
2005-11-28 07:41:28 51°13.698 2°55.745 -999 4.450728 32.271246 -1.253181
2005-11-28 07:41:32 51°13.699 2°55.747 -999 4.450728 32.271246 -1.253181
2005-11-28 07:41:36 51°13.701 2°55.748 -999 4.450728 32.271841 -1.253181
2005-11-28 07:41:43 51°13.706 2°55.75 -999 4.450728 32.272436 -1.253181
2005-11-28 07:41:48 51°13.709 2°55.751 -999 4.450728 32.272436 -1.253181
2005-11-28 07:41:52 51°13.713 2°55.751 -999 4.450625 32.272784 -1.253181
2005-11-28 07:41:58 51°13.719 2°55.75 -999 4.450625 32.273379 -1.253181
2005-11-28 07:42:02 51°13.723 2°55.748 -999 4.450625 32.273974 -1.253181
2005-11-28 07:42:08 51°13.73 2°55.743 -999 4.450625 32.274569 -1.253181
2005-11-28 07:42:12 51°13.734 2°55.739 -999 4.450625 32.274569 -1.253181
2005-11-28 07:42:16 51°13.738 2°55.734 -999 4.450625 32.274569 -1.253181
2005-11-28 07:42:22 51°13.743 2°55.728 -999 4.450625 32.274569 -1.253181
2005-11-28 07:42:27 51°13.752 2°55.718 -999 4.450625 32.273379 -1.253181
2005-11-28 07:42:32 51°13.759 2°55.709 -999 4.450521 32.271943 -1.219471
2005-11-28 07:42:36 51°13.765 2°55.702 -999 4.450521 32.271943 -1.253181
2005-11-28 07:42:42 51°13.774 2°55.691 -999 4.450521 32.270753 -1.253181
2005-11-28 07:42:47 51°13.783 2°55.682 -999 4.450521 32.270753 -1.253181
2005-11-28 07:42:52 51°13.792 2°55.672 -999 4.450521 32.270158 -1.219471
2005-11-28 07:42:57 51°13.801 2°55.663 -999 4.450521 32.270158 -1.253181
2005-11-28 07:43:02 51°13.812 2°55.654 -999 4.450521 32.270753 -1.253181
2005-11-28 07:43:07 51°13.822 2°55.645 -999 4.450417 32.269912 -1.253181
2005-11-28 07:43:12 51°13.833 2°55.635 -999 4.450417 32.270507 -1.253181
2005-11-28 07:43:17 51°13.844 2°55.626 -999 4.450417 32.270507 -1.253181
2005-11-28 07:43:22 51°13.855 2°55.617 -999 4.450417 32.270507 -1.253181
2005-11-28 07:43:27 51°13.867 2°55.608 -999 4.450417 32.270507 -1.253181
2005-11-28 07:43:32 51°13.879 2°55.598 -999 4.450313 32.269666 -1.253181
2005-11-28 07:43:37 51°13.891 2°55.589 -999 4.450313 32.269666 -1.219471
2005-11-28 07:43:42 51°13.903 2°55.581 -999 4.450313 32.270261 -1.219471
2005-11-28 07:43:47 51°13.915 2°55.571 -999 4.450313 32.270261 -1.219471
2005-11-28 07:43:52 51°13.928 2°55.562 -999 4.450313 32.269666 -1.253181
2005-11-28 07:43:56 51°13.938 2°55.555 -999 4.45021 32.270014 -1.219471
2005-11-28 07:44:02 51°13.953 2°55.544 -999 4.450313 32.270855 -1.253181
2005-11-28 07:44:08 51°13.968 2°55.533 -999 4.45021 32.270609 -1.253181
2005-11-28 07:44:12 51°13.978 2°55.527 -999 4.45021 32.271204 -1.253181
2005-11-28 07:44:16 51°13.989 2°55.52 -999 4.45021 32.271204 -1.253181
2005-11-28 07:44:22 51°14.004 2°55.51 -999 4.45021 32.271799 -1.219471
2005-11-28 07:44:27 51°14.017 2°55.502 -999 4.450106 32.271553 -1.253181
2005-11-28 07:44:32 51°14.029 2°55.493 -999 4.450106 32.271553 -1.253181
2005-11-28 07:44:37 51°14.042 2°55.484 -999 4.450106 32.271553 -1.253181
2005-11-28 07:44:42 51°14.054 2°55.476 -999 4.450106 32.271553 -1.253181
2005-11-28 07:44:47 51°14.067 2°55.467 -999 4.450106 32.271553 -1.253181
2005-11-28 07:44:52 51°14.08 2°55.459 -999 4.450002 32.271901 -1.253181
2005-11-28 07:44:57 51°14.092 2°55.45 -999 4.450002 32.271901 -1.253181
2005-11-28 07:45:02 51°14.104 2°55.441 -999 4.450002 32.271901 -1.253181
2005-11-28 07:45:08 51°14.119 2°55.429 -999 4.449898 32.27106 -1.253181
2005-11-28 07:45:12 51°14.129 2°55.422 -999 4.450002 32.271901 -1.253181
2005-11-28 07:45:18 51°14.143 2°55.41 -999 4.450002 32.271901 -1.253181
2005-11-28 07:45:23 51°14.155 2°55.399 -999 4.449898 32.27106 -1.219471
2005-11-28 07:45:28 51°14.167 2°55.388 -999 4.449898 32.271655 -1.253181
2005-11-28 07:45:32 51°14.177 2°55.378 -999 4.449898 32.271655 -1.253181
2005-11-28 07:45:38 51°14.19 2°55.364 -999 4.449898 32.271655 -1.219471
2005-11-28 07:45:42 51°14.199 2°55.353 -999 4.449898 32.271655 -1.253181
2005-11-28 07:45:48 51°14.213 2°55.337 -999 4.449898 32.271655 -1.253181
2005-11-28 07:45:52 51°14.221 2°55.325 -999 4.449795 32.271409 -1.253181
2005-11-28 07:45:58 51°14.234 2°55.307 -999 4.449795 32.271409 -1.253181
2005-11-28 07:46:02 51°14.242 2°55.295 -999 4.449795 32.271409 -1.253181
2005-11-28 07:46:08 51°14.253 2°55.276 -999 4.449795 32.271409 -1.253181
2005-11-28 07:46:12 51°14.261 2°55.263 -999 4.449587 32.270321 -1.253181
2005-11-28 07:46:16 51°14.269 2°55.25 -999 4.449587 32.270321 -1.253181
2005-11-28 07:46:22 51°14.28 2°55.23 -999 4.449691 32.271162 -1.253181
2005-11-28 07:46:28 51°14.291 2°55.209 -999 4.449691 32.271162 -1.253181
2005-11-28 07:46:32 51°14.299 2°55.195 -999 4.449587 32.270321 -1.253181
2005-11-28 07:46:36 51°14.307 2°55.181 -999 4.449691 32.271757 -1.253181
2005-11-28 07:46:42 51°14.318 2°55.16 -999 4.449587 32.270916 -1.253181
2005-11-28 07:46:48 51°14.33 2°55.138 -999 4.449587 32.270916 -1.253181
2005-11-28 07:46:52 51°14.337 2°55.123 -999 4.449587 32.270916 -1.219471
2005-11-28 07:46:56 51°14.345 2°55.108 -999 4.449587 32.270916 -1.253181
2005-11-28 07:47:02 51°14.356 2°55.086 -999 4.449587 32.270916 -1.253181
2005-11-28 07:47:07 51°14.366 2°55.067 -999 4.449483 32.270075 -1.219471
2005-11-28 07:47:12 51°14.376 2°55.048 -999 4.449483 32.26948 -1.253181
2005-11-28 07:47:17 51°14.387 2°55.03 -999 4.449483 32.26948 -1.253181
2005-11-28 07:47:22 51°14.398 2°55.013 -999 4.449483 32.270075 -1.219471
2005-11-28 07:47:27 51°14.409 2°54.996 -999 4.449587 32.271511 -1.219471
2005-11-28 07:47:32 51°14.421 2°54.978 -999 4.449483 32.27067 -1.253181
2005-11-28 07:47:36 51°14.43 2°54.965 -999 4.44938 32.269828 -1.219471
2005-11-28 07:47:42 51°14.445 2°54.945 -999 4.44938 32.270423 -1.253181
2005-11-28 07:47:47 51°14.457 2°54.93 -999 4.44938 32.270423 -1.253181
2005-11-28 07:47:52 51°14.469 2°54.915 -999 4.44938 32.271018 -1.219471
2005-11-28 07:47:57 51°14.482 2°54.9 -999 4.449276 32.270177 -1.253181
2005-11-28 07:48:02 51°14.494 2°54.887 -999 4.449276 32.269582 -1.219471
2005-11-28 07:48:07 51°14.508 2°54.874 -999 4.449276 32.270177 -1.253181
2005-11-28 07:48:12 51°14.522 2°54.863 -999 4.449276 32.270177 -1.253181
2005-11-28 07:48:16 51°14.533 2°54.854 -999 4.449276 32.270177 -1.253181
2005-11-28 07:48:22 51°14.55 2°54.841 -999 4.44938 32.271614 -1.253181
2005-11-28 07:48:27 51°14.564 2°54.831 -999 4.449276 32.270772 -1.219471
2005-11-28 07:48:32 51°14.579 2°54.82 -999 4.449172 32.269931 -1.253181
2005-11-28 07:48:37 51°14.593 2°54.81 -999 4.449172 32.270526 -1.253181
2005-11-28 07:48:42 51°14.608 2°54.801 -999 4.449172 32.270526 -1.253181
2005-11-28 07:48:47 51°14.623 2°54.791 -999 4.449172 32.270526 -1.253181
2005-11-28 07:48:52 51°14.638 2°54.781 -999 4.449172 32.270526 -1.253181
2005-11-28 07:48:56 51°14.65 2°54.773 -999 4.449068 32.269684 -1.253181
2005-11-28 07:49:02 51°14.669 2°54.761 -999 4.449068 32.269684 -1.253181
2005-11-28 07:49:07 51°14.684 2°54.751 -999 4.449068 32.27028 -1.253181
2005-11-28 07:49:12 51°14.699 2°54.741 -999 4.449068 32.27028 -1.253181
2005-11-28 07:49:16 51°14.712 2°54.733 -999 4.449068 32.27028 -1.253181
2005-11-28 07:49:22 51°14.73 2°54.721 -999 4.449068 32.27028 -1.253181
2005-11-28 07:49:27 51°14.746 2°54.711 -999 4.449068 32.27028 -1.219471
2005-11-28 07:49:32 51°14.761 2°54.701 -999 4.448965 32.270033 -1.219471
2005-11-28 07:49:36 51°14.773 2°54.692 -999 4.448965 32.270033 -1.253181
2005-11-28 07:49:42 51°14.792 2°54.68 -999 4.448965 32.270033 -1.253181
2005-11-28 07:49:47 51°14.807 2°54.67 -999 4.448965 32.270033 -1.253181
2005-11-28 07:49:52 51°14.823 2°54.659 -999 4.448965 32.270033 -1.253181
2005-11-28 07:49:56 51°14.835 2°54.651 -999 4.448861 32.269787 -1.253181
2005-11-28 07:50:02 51°14.854 2°54.638 -999 4.448861 32.269787 -1.253181
2005-11-28 07:50:07 51°14.87 2°54.627 -999 4.448861 32.270382 -1.253181
2005-11-28 07:50:12 51°14.886 2°54.617 -999 4.448861 32.270382 -1.219471
2005-11-28 07:50:16 51°14.898 2°54.608 -999 4.448861 32.270382 -1.219471
2005-11-28 07:50:22 51°14.917 2°54.595 -999 4.448861 32.270382 -1.253181
2005-11-28 07:50:27 51°14.933 2°54.584 -999 4.448757 32.270136 -1.253181
2005-11-28 07:50:32 51°14.948 2°54.573 -999 4.448861 32.270977 -1.219471
2005-11-28 07:50:36 51°14.961 2°54.565 -999 4.448861 32.271572 -1.253181
2005-11-28 07:50:42 51°14.98 2°54.552 -999 4.448757 32.270731 -1.253181
2005-11-28 07:50:47 51°14.997 2°54.542 -999 4.448757 32.270731 -1.253181
2005-11-28 07:50:52 51°15.012 2°54.531 -999 4.448653 32.269889 -1.219471
2005-11-28 07:50:56 51°15.024 2°54.522 -999 4.448757 32.271326 -1.253181
2005-11-28 07:51:02 51°15.044 2°54.509 -999 4.44855 32.269643 -1.219471
2005-11-28 07:51:07 51°15.059 2°54.498 -999 4.44855 32.269643 -1.219471
2005-11-28 07:51:12 51°15.075 2°54.488 -999 4.448654 32.270484 -1.253181
2005-11-28 07:51:16 51°15.087 2°54.479 -999 4.448654 32.270484 -1.253181
2005-11-28 07:51:22 51°15.105 2°54.465 -999 4.448654 32.270484 -1.219471
2005-11-28 07:51:27 51°15.12 2°54.453 -999 4.44855 32.269643 -1.253181
2005-11-28 07:51:32 51°15.134 2°54.44 -999 4.44855 32.270238 -1.253181
2005-11-28 07:51:36 51°15.146 2°54.429 -999 4.44855 32.270238 -1.253181
2005-11-28 07:51:42 51°15.164 2°54.412 -999 4.44855 32.270238 -1.219471
2005-11-28 07:51:47 51°15.178 2°54.398 -999 4.44855 32.270238 -1.219471
2005-11-28 07:51:52 51°15.192 2°54.383 -999 4.448446 32.269992 -1.253181
2005-11-28 07:51:56 51°15.204 2°54.371 -999 4.448446 32.269992 -1.253181
2005-11-28 07:52:02 51°15.221 2°54.353 -999 4.448446 32.270587 -1.219471
2005-11-28 07:52:07 51°15.234 2°54.338 -999 4.448446 32.270587 -1.219471
2005-11-28 07:52:12 51°15.249 2°54.323 -999 4.448446 32.271182 -1.253181
2005-11-28 07:52:16 51°15.26 2°54.311 -999 4.448446 32.271182 -1.253181
2005-11-28 07:52:22 51°15.277 2°54.293 -999 4.448342 32.269745 -1.219471
2005-11-28 07:52:27 51°15.291 2°54.278 -999 4.448342 32.269745 -1.219471
2005-11-28 07:52:32 51°15.305 2°54.264 -999 4.448342 32.270341 -1.219471
2005-11-28 07:52:36 51°15.316 2°54.252 -999 4.448342 32.270341 -1.253181
2005-11-28 07:52:42 51°15.333 2°54.234 -999 4.448239 32.269499 -1.253181
2005-11-28 07:52:47 51°15.347 2°54.219 -999 4.448239 32.269499 -1.253181
2005-11-28 07:52:52 51°15.361 2°54.204 -999 4.448342 32.270936 -1.253181
2005-11-28 07:52:56 51°15.372 2°54.192 -999 4.448239 32.270094 -1.253181
2005-11-28 07:53:02 51°15.389 2°54.174 -999 4.448239 32.270094 -1.253181
2005-11-28 07:53:07 51°15.403 2°54.159 -999 4.448239 32.27069 -1.253181
2005-11-28 07:53:12 51°15.417 2°54.143 -999 4.448239 32.27069 -1.253181
2005-11-28 07:53:16 51°15.429 2°54.131 -999 4.448239 32.27069 -1.253181
2005-11-28 07:53:22 51°15.445 2°54.113 -999 4.448135 32.270443 -1.253181
2005-11-28 07:53:27 51°15.459 2°54.098 -999 4.448135 32.271039 -1.253181
2005-11-28 07:53:32 51°15.473 2°54.083 -999 4.448135 32.271039 -1.253181
2005-11-28 07:53:37 51°15.487 2°54.069 -999 4.448135 32.271039 -1.219471
2005-11-28 07:53:42 51°15.501 2°54.054 -999 4.448031 32.269602 -1.253181
2005-11-28 07:53:47 51°15.516 2°54.039 -999 4.448031 32.269602 -1.253181
2005-11-28 07:53:52 51°15.529 2°54.025 -999 4.448031 32.270197 -1.253181
2005-11-28 07:53:56 51°15.541 2°54.013 -999 4.448135 32.271634 -1.219471
2005-11-28 07:54:02 51°15.557 2°53.995 -999 4.448031 32.271387 -1.219471
2005-11-28 07:54:07 51°15.571 2°53.98 -999 4.447927 32.270546 -1.219471
2005-11-28 07:54:12 51°15.585 2°53.966 -999 4.447927 32.269951 -1.219471
2005-11-28 07:54:16 51°15.597 2°53.954 -999 4.447927 32.269951 -1.219471
2005-11-28 07:54:22 51°15.614 2°53.936 -999 4.447927 32.270546 -1.253181
2005-11-28 07:54:27 51°15.628 2°53.921 -999 4.447927 32.271141 -1.219471
2005-11-28 07:54:32 51°15.642 2°53.907 -999 4.447824 32.2703 -1.253181
2005-11-28 07:54:37 51°15.657 2°53.892 -999 4.447824 32.2703 -1.219471
2005-11-28 07:54:42 51°15.67 2°53.878 -999 4.44772 32.269458 -1.219471
2005-11-28 07:54:47 51°15.684 2°53.863 -999 4.44772 32.269458 -1.219471
2005-11-28 07:54:52 51°15.699 2°53.848 -999 4.447824 32.270895 -1.253181
2005-11-28 07:54:56 51°15.71 2°53.837 -999 4.44772 32.270053 -1.219471
2005-11-28 07:55:02 51°15.727 2°53.82 -999 4.44772 32.270053 -1.253181
2005-11-28 07:55:07 51°15.741 2°53.806 -999 4.447616 32.269212 -1.253181
2005-11-28 07:55:12 51°15.755 2°53.791 -999 4.447616 32.269212 -1.219471
2005-11-28 07:55:16 51°15.766 2°53.781 -999 4.447616 32.269212 -1.219471
2005-11-28 07:55:22 51°15.783 2°53.763 -999 4.447512 32.26837 -1.253181
2005-11-28 07:55:27 51°15.798 2°53.749 -999 4.447409 32.267528 -1.253181
2005-11-28 07:55:32 51°15.812 2°53.734 -999 4.447616 32.270402 -1.219471
2005-11-28 07:55:36 51°15.823 2°53.722 -999 4.447512 32.269561 -1.253181
2005-11-28 07:55:42 51°15.84 2°53.704 -999 4.447409 32.269314 -1.219471
2005-11-28 07:55:47 51°15.854 2°53.69 -999 4.447409 32.269314 -1.219471
2005-11-28 07:55:52 51°15.868 2°53.675 -999 4.447409 32.26991 -1.253181
2005-11-28 07:55:56 51°15.879 2°53.664 -999 4.447512 32.270751 -1.253181
2005-11-28 07:56:02 51°15.896 2°53.646 -999 4.447512 32.271347 -1.219471
2005-11-28 07:56:07 51°15.91 2°53.631 -999 4.447512 32.271347 -1.253181
2005-11-28 07:56:12 51°15.924 2°53.616 -999 4.447409 32.270505 -1.253181
2005-11-28 07:56:17 51°15.938 2°53.602 -999 4.447409 32.270505 -1.253181
2005-11-28 07:56:22 51°15.953 2°53.587 -999 4.447305 32.269663 -1.253181
2005-11-28 07:56:27 51°15.967 2°53.573 -999 4.447305 32.269663 -1.253181
2005-11-28 07:56:32 51°15.981 2°53.558 -999 4.447305 32.270259 -1.219471
2005-11-28 07:56:36 51°15.993 2°53.547 -999 4.447201 32.269417 -1.219471
2005-11-28 07:56:42 51°16.009 2°53.529 -999 4.447305 32.270854 -1.253181
2005-11-28 07:56:47 51°16.023 2°53.515 -999 4.447305 32.270854 -1.253181
2005-11-28 07:56:52 51°16.037 2°53.501 -999 4.447201 32.270012 -1.253181
2005-11-28 07:56:57 51°16.052 2°53.487 -999 4.447201 32.270608 -1.253181
2005-11-28 07:57:02 51°16.066 2°53.472 -999 4.447097 32.269766 -1.253181
2005-11-28 07:57:07 51°16.08 2°53.457 -999 4.447097 32.269766 -1.253181
2005-11-28 07:57:12 51°16.094 2°53.442 -999 4.447097 32.270361 -1.253181
2005-11-28 07:57:16 51°16.105 2°53.43 -999 4.447097 32.270361 -1.253181
2005-11-28 07:57:22 51°16.122 2°53.414 -999 4.446994 32.26952 -1.253181
2005-11-28 07:57:27 51°16.137 2°53.399 -999 4.446994 32.26952 -1.219471
2005-11-28 07:57:32 51°16.151 2°53.386 -999 4.447097 32.270361 -1.219471
2005-11-28 07:57:36 51°16.163 2°53.375 -999 4.44689 32.269273 -1.219471
2005-11-28 07:57:42 51°16.181 2°53.36 -999 4.446994 32.270115 -1.253181
2005-11-28 07:57:47 51°16.195 2°53.348 -999 4.446994 32.270115 -1.253181
2005-11-28 07:57:52 51°16.21 2°53.335 -999 4.44689 32.269869 -1.219471
2005-11-28 07:57:56 51°16.222 2°53.325 -999 4.44689 32.269869 -1.253181
2005-11-28 07:58:02 51°16.24 2°53.311 -999 4.44689 32.269869 -1.219471
2005-11-28 07:58:07 51°16.256 2°53.299 -999 4.446786 32.269622 -1.253181
2005-11-28 07:58:12 51°16.271 2°53.288 -999 4.446682 32.269376 -1.219471
2005-11-28 07:58:16 51°16.282 2°53.281 -999 4.446682 32.269376 -1.219471
2005-11-28 07:58:22 51°16.3 2°53.266 -999 4.446786 32.270813 -1.219471
2005-11-28 07:58:27 51°16.314 2°53.254 -999 4.446579 32.267939 -1.253181
2005-11-28 07:58:32 51°16.329 2°53.242 -999 4.446786 32.269622 -1.253181
2005-11-28 07:58:36 51°16.34 2°53.232 -999 4.446682 32.268781 -1.219471
2005-11-28 07:58:42 51°16.358 2°53.217 -999 4.446682 32.268781 -1.219471
2005-11-28 07:58:47 51°16.373 2°53.205 -999 4.446682 32.268781 -1.219471
2005-11-28 07:58:52 51°16.388 2°53.193 -999 4.446682 32.269376 -1.253181
2005-11-28 07:58:56 51°16.4 2°53.183 -999 4.446579 32.26913 -1.219471
2005-11-28 07:59:02 51°16.418 2°53.168 -999 4.446579 32.269725 -1.253181
2005-11-28 07:59:07 51°16.433 2°53.154 -999 4.446475 32.268883 -1.253181
2005-11-28 07:59:12 51°16.448 2°53.142 -999 4.446475 32.268883 -1.253181
2005-11-28 07:59:16 51°16.46 2°53.132 -999 4.446475 32.268883 -1.253181
2005-11-28 07:59:22 51°16.478 2°53.118 -999 4.446475 32.268883 -1.253181
2005-11-28 07:59:27 51°16.493 2°53.106 -999 4.446475 32.269479 -1.253181
2005-11-28 07:59:32 51°16.509 2°53.095 -999 4.446371 32.268637 -1.253181
2005-11-28 07:59:36 51°16.521 2°53.086 -999 4.446371 32.269232 -1.219471
2005-11-28 07:59:42 51°16.539 2°53.072 -999 4.446267 32.268986 -1.219471
2005-11-28 07:59:47 51°16.554 2°53.06 -999 4.446267 32.268986 -1.219471
2005-11-28 07:59:52 51°16.569 2°53.048 -999 4.446371 32.269828 -1.253181
2005-11-28 07:59:56 51°16.582 2°53.038 -999 4.446267 32.268986 -1.253181
2005-11-28 08:00:02 51°16.6 2°53.024 -999 4.446267 32.269582 -1.253181
2005-11-28 08:00:07 51°16.615 2°53.012 -999 4.446164 32.269335 -1.219471
2005-11-28 08:00:12 51°16.63 2°53 -999 4.446164 32.269335 -1.219471
2005-11-28 08:00:16 51°16.642 2°52.99 -999 4.446164 32.269335 -1.219471
2005-11-28 08:00:22 51°16.66 2°52.977 -999 4.446164 32.269931 -1.219471
2005-11-28 08:00:27 51°16.675 2°52.965 -999 4.446164 32.269335 -1.219471
2005-11-28 08:00:32 51°16.69 2°52.953 -999 4.44606 32.269089 -1.219471
2005-11-28 08:00:36 51°16.701 2°52.944 -999 4.44606 32.269684 -1.253181
2005-11-28 08:00:42 51°16.719 2°52.929 -999 4.44606 32.27028 -1.253181
2005-11-28 08:00:47 51°16.734 2°52.917 -999 4.44606 32.27028 -1.253181
2005-11-28 08:00:52 51°16.749 2°52.905 -999 4.44606 32.269684 -1.219471
2005-11-28 08:00:56 51°16.761 2°52.896 -999 4.44606 32.27028 -1.253181
2005-11-28 08:01:02 51°16.779 2°52.881 -999 4.445956 32.269438 -1.253181
2005-11-28 08:01:07 51°16.794 2°52.87 -999 4.445956 32.270034 -1.219471
2005-11-28 08:01:12 51°16.809 2°52.858 -999 4.445852 32.269787 -1.219471
2005-11-28 08:01:17 51°16.824 2°52.846 -999 4.445852 32.269787 -1.219471
2005-11-28 08:01:22 51°16.839 2°52.835 -999 4.445956 32.270629 -1.253181
2005-11-28 08:01:27 51°16.853 2°52.824 -999 4.445852 32.270383 -1.219471
2005-11-28 08:01:32 51°16.868 2°52.812 -999 4.445852 32.270383 -1.253181
2005-11-28 08:01:36 51°16.88 2°52.803 -999 4.445852 32.270383 -1.253181
2005-11-28 08:01:42 51°16.898 2°52.79 -999 4.445645 32.268699 -1.253181
2005-11-28 08:01:47 51°16.913 2°52.778 -999 4.445645 32.268699 -1.253181
2005-11-28 08:01:52 51°16.928 2°52.767 -999 4.445645 32.269295 -1.253181
2005-11-28 08:01:56 51°16.939 2°52.757 -999 4.445645 32.269295 -1.219471
2005-11-28 08:02:00 51°16.951 2°52.748 -999 4.445541 32.267857 -1.219471
2005-11-28 08:02:07 51°16.972 2°52.732 -999 4.445541 32.268453 -1.219471
2005-11-28 08:02:12 51°16.987 2°52.72 -999 4.445541 32.268453 -1.253181
2005-11-28 08:02:17 51°17.001 2°52.71 -999 4.445541 32.268453 -1.253181
2005-11-28 08:02:22 51°17.016 2°52.699 -999 4.445541 32.269048 -1.253181
2005-11-28 08:02:27 51°17.031 2°52.688 -999 4.445437 32.268802 -1.253181
2005-11-28 08:02:32 51°17.046 2°52.676 -999 4.445645 32.271082 -1.253181
2005-11-28 08:02:36 51°17.058 2°52.666 -999 4.445437 32.269398 -1.253181
2005-11-28 08:02:42 51°17.076 2°52.652 -999 4.445334 32.268556 -1.253181
2005-11-28 08:02:47 51°17.091 2°52.64 -999 4.445334 32.268556 -1.253181
2005-11-28 08:02:52 51°17.106 2°52.628 -999 4.445437 32.269398 -1.219471
2005-11-28 08:02:56 51°17.117 2°52.618 -999 4.445437 32.269993 -1.219471
2005-11-28 08:03:02 51°17.135 2°52.603 -999 4.445334 32.268556 -1.253181
2005-11-28 08:03:07 51°17.15 2°52.59 -999 4.445334 32.269151 -1.219471
2005-11-28 08:03:12 51°17.164 2°52.578 -999 4.44523 32.268905 -1.253181
2005-11-28 08:03:16 51°17.176 2°52.568 -999 4.44523 32.268905 -1.253181
2005-11-28 08:03:22 51°17.193 2°52.553 -999 4.44523 32.268905 -1.219471
2005-11-28 08:03:27 51°17.208 2°52.539 -999 4.445334 32.270343 -1.253181
2005-11-28 08:03:32 51°17.222 2°52.526 -999 4.445126 32.268659 -1.253181
2005-11-28 08:03:36 51°17.233 2°52.515 -999 4.445126 32.268659 -1.253181
2005-11-28 08:03:42 51°17.25 2°52.499 -999 4.445126 32.269254 -1.253181
2005-11-28 08:03:47 51°17.264 2°52.486 -999 4.445126 32.269254 -1.253181
2005-11-28 08:03:52 51°17.279 2°52.472 -999 4.445022 32.268412 -1.219471
2005-11-28 08:03:56 51°17.29 2°52.461 -999 4.445022 32.269008 -1.253181
2005-11-28 08:04:02 51°17.307 2°52.444 -999 4.445126 32.26985 -1.253181
2005-11-28 08:04:07 51°17.321 2°52.43 -999 4.445022 32.269604 -1.253181
2005-11-28 08:04:12 51°17.335 2°52.415 -999 4.445022 32.2702 -1.219471
2005-11-28 08:04:16 51°17.346 2°52.403 -999 4.445022 32.2702 -1.219471
2005-11-28 08:04:22 51°17.363 2°52.384 -999 4.445023 32.270795 -1.253181
2005-11-28 08:04:27 51°17.376 2°52.369 -999 4.444815 32.268515 -1.253181
2005-11-28 08:04:32 51°17.39 2°52.353 -999 4.444815 32.269111 -1.253181
2005-11-28 08:04:36 51°17.401 2°52.341 -999 4.444815 32.269111 -1.253181
2005-11-28 08:04:42 51°17.417 2°52.322 -999 4.444815 32.269707 -1.219471
2005-11-28 08:04:47 51°17.429 2°52.304 -999 4.444815 32.269707 -1.219471
2005-11-28 08:04:52 51°17.442 2°52.286 -999 4.444815 32.269707 -1.253181
2005-11-28 08:04:56 51°17.451 2°52.272 -999 4.444711 32.268865 -1.219471
2005-11-28 08:05:02 51°17.465 2°52.249 -999 4.444607 32.268618 -1.219471
2005-11-28 08:05:07 51°17.475 2°52.23 -999 4.444607 32.268618 -1.253181
2005-11-28 08:05:12 51°17.486 2°52.209 -999 4.444608 32.26981 -1.219471
2005-11-28 08:05:16 51°17.494 2°52.193 -999 4.444608 32.26981 -1.219471
2005-11-28 08:05:22 51°17.506 2°52.167 -999 4.444608 32.269214 -1.219471
2005-11-28 08:05:27 51°17.515 2°52.146 -999 4.444504 32.268968 -1.219471
2005-11-28 08:05:32 51°17.524 2°52.124 -999 4.444504 32.268968 -1.253181
2005-11-28 08:05:36 51°17.531 2°52.106 -999 4.444504 32.268968 -1.253181
2005-11-28 08:05:42 51°17.542 2°52.079 -999 4.4444 32.268721 -1.253181
2005-11-28 08:05:47 51°17.55 2°52.057 -999 4.4444 32.268721 -1.253181
2005-11-28 08:05:52 51°17.558 2°52.035 -999 4.4444 32.269317 -1.219471
2005-11-28 08:05:56 51°17.564 2°52.017 -999 4.4444 32.269317 -1.253181
2005-11-28 08:06:02 51°17.574 2°51.989 -999 4.444296 32.268475 -1.219471
2005-11-28 08:06:07 51°17.582 2°51.967 -999 4.444296 32.269071 -1.253181
2005-11-28 08:06:12 51°17.59 2°51.943 -999 4.4444 32.269913 -1.253181
2005-11-28 08:06:16 51°17.597 2°51.925 -999 4.4444 32.269913 -1.253181
2005-11-28 08:06:22 51°17.606 2°51.897 -999 4.444193 32.268825 -1.253181
2005-11-28 08:06:27 51°17.614 2°51.873 -999 4.444193 32.268825 -1.253181
2005-11-28 08:06:32 51°17.621 2°51.852 -999 4.444296 32.269667 -1.219471
2005-11-28 08:06:36 51°17.627 2°51.833 -999 4.444193 32.268825 -1.253181
2005-11-28 08:06:42 51°17.636 2°51.807 -999 4.444089 32.267982 -1.253181
2005-11-28 08:06:47 51°17.644 2°51.784 -999 4.444089 32.267982 -1.253181
2005-11-28 08:06:52 51°17.651 2°51.761 -999 4.443985 32.26714 -1.253181
2005-11-28 08:06:56 51°17.658 2°51.743 -999 4.443985 32.267736 -1.253181
2005-11-28 08:07:02 51°17.666 2°51.716 -999 4.443985 32.267736 -1.253181
2005-11-28 08:07:07 51°17.674 2°51.693 -999 4.443881 32.26749 -1.253181
2005-11-28 08:07:12 51°17.682 2°51.669 -999 4.443881 32.268086 -1.253181
2005-11-28 08:07:16 51°17.688 2°51.651 -999 4.443881 32.268086 -1.253181
2005-11-28 08:07:22 51°17.698 2°51.623 -999 4.443985 32.269524 -1.219471
2005-11-28 08:07:27 51°17.706 2°51.599 -999 4.443778 32.268435 -1.219471
2005-11-28 08:07:32 51°17.714 2°51.576 -999 4.443778 32.269031 -1.253181
2005-11-28 08:07:36 51°17.72 2°51.557 -999 4.443674 32.268189 -1.253181
2005-11-28 08:07:42 51°17.728 2°51.529 -999 4.443778 32.269627 -1.253181
2005-11-28 08:07:47 51°17.735 2°51.505 -999 4.443778 32.269627 -1.253181
2005-11-28 08:07:52 51°17.742 2°51.483 -999 4.443674 32.268189 -1.219471
2005-11-28 08:07:56 51°17.747 2°51.464 -999 4.443778 32.269031 -1.253181
2005-11-28 08:08:02 51°17.756 2°51.435 -999 4.44357 32.267346 -1.219471
2005-11-28 08:08:07 51°17.763 2°51.412 -999 4.443674 32.269381 -1.219471
2005-11-28 08:08:12 51°17.77 2°51.389 -999 4.44357 32.268538 -1.253181
2005-11-28 08:08:16 51°17.776 2°51.37 -999 4.44357 32.268538 -1.253181
2005-11-28 08:08:22 51°17.784 2°51.342 -999 4.443466 32.267696 -1.253181
2005-11-28 08:08:27 51°17.792 2°51.319 -999 4.44357 32.269134 -1.253181
2005-11-28 08:08:32 51°17.799 2°51.296 -999 4.443466 32.268888 -1.219471
2005-11-28 08:08:36 51°17.805 2°51.277 -999 4.443466 32.268888 -1.253181
2005-11-28 08:08:42 51°17.813 2°51.25 -999 4.443363 32.268046 -1.219471
2005-11-28 08:08:47 51°17.821 2°51.226 -999 4.443363 32.268046 -1.219471
2005-11-28 08:08:52 51°17.828 2°51.203 -999 4.443466 32.269484 -1.253181
2005-11-28 08:08:56 51°17.834 2°51.184 -999 4.443363 32.269238 -1.253181
2005-11-28 08:09:02 51°17.843 2°51.156 -999 4.443259 32.268395 -1.253181
2005-11-28 08:09:07 51°17.85 2°51.132 -999 4.443363 32.269834 -1.253181
2005-11-28 08:09:12 51°17.857 2°51.108 -999 4.443259 32.268991 -1.253181
2005-11-28 08:09:16 51°17.864 2°51.089 -999 4.443259 32.268991 -1.253181
2005-11-28 08:09:22 51°17.872 2°51.061 -999 4.443155 32.268745 -1.253181
2005-11-28 08:09:27 51°17.88 2°51.037 -999 4.443155 32.268745 -1.219471
2005-11-28 08:09:32 51°17.886 2°51.014 -999 4.443155 32.268745 -1.253181
2005-11-28 08:09:36 51°17.892 2°50.996 -999 4.443155 32.269341 -1.253181
2005-11-28 08:09:42 51°17.9 2°50.968 -999 4.443051 32.268499 -1.253181
2005-11-28 08:09:47 51°17.907 2°50.945 -999 4.443051 32.268499 -1.253181
2005-11-28 08:09:52 51°17.914 2°50.922 -999 4.442948 32.268252 -1.253181
2005-11-28 08:09:56 51°17.92 2°50.903 -999 4.442948 32.268848 -1.253181
2005-11-28 08:10:02 51°17.928 2°50.876 -999 4.443051 32.269691 -1.253181
2005-11-28 08:10:07 51°17.935 2°50.852 -999 4.442844 32.268006 -1.219471
2005-11-28 08:10:12 51°17.942 2°50.829 -999 4.442844 32.268602 -1.253181
2005-11-28 08:10:17 51°17.949 2°50.805 -999 4.442844 32.268602 -1.253181
2005-11-28 08:10:22 51°17.957 2°50.781 -999 4.442844 32.268602 -1.253181
2005-11-28 08:10:27 51°17.964 2°50.758 -999 4.44274 32.268356 -1.219471
2005-11-28 08:10:32 51°17.971 2°50.735 -999 4.44274 32.268356 -1.253181
2005-11-28 08:10:36 51°17.977 2°50.716 -999 4.442636 32.267513 -1.219471
2005-11-28 08:10:42 51°17.986 2°50.688 -999 4.442636 32.267513 -1.253181
2005-11-28 08:10:47 51°17.993 2°50.664 -999 4.442636 32.267513 -1.253181
2005-11-28 08:10:52 51°18 2°50.641 -999 4.442636 32.268109 -1.253181
2005-11-28 08:10:56 51°18.006 2°50.622 -999 4.442533 32.267267 -1.219471
2005-11-28 08:11:02 51°18.015 2°50.594 -999 4.442636 32.268109 -1.253181
2005-11-28 08:11:07 51°18.022 2°50.571 -999 4.442429 32.26702 -1.253181
2005-11-28 08:11:12 51°18.03 2°50.547 -999 4.442429 32.267616 -1.253181
2005-11-28 08:11:17 51°18.037 2°50.524 -999 4.442429 32.267616 -1.253181
2005-11-28 08:11:22 51°18.044 2°50.501 -999 4.442429 32.267616 -1.253181
2005-11-28 08:11:27 51°18.051 2°50.477 -999 4.442429 32.268213 -1.219471
2005-11-28 08:11:32 51°18.058 2°50.454 -999 4.442429 32.268809 -1.219471
2005-11-28 08:11:36 51°18.064 2°50.435 -999 4.442325 32.267966 -1.219471
2005-11-28 08:11:42 51°18.073 2°50.407 -999 4.442221 32.26772 -1.219471
2005-11-28 08:11:47 51°18.081 2°50.383 -999 4.442221 32.26772 -1.219471
2005-11-28 08:11:52 51°18.088 2°50.36 -999 4.442325 32.267966 -1.253181
2005-11-28 08:11:56 51°18.093 2°50.341 -999 4.442221 32.26772 -1.219471
2005-11-28 08:12:02 51°18.102 2°50.312 -999 4.442221 32.26772 -1.219471
2005-11-28 08:12:07 51°18.109 2°50.289 -999 4.442014 32.266631 -1.219471
2005-11-28 08:12:12 51°18.116 2°50.265 -999 4.442118 32.267473 -1.253181
2005-11-28 08:12:16 51°18.122 2°50.247 -999 4.442118 32.267473 -1.253181
2005-11-28 08:12:22 51°18.131 2°50.219 -999 4.442014 32.266631 -1.219471
2005-11-28 08:12:27 51°18.138 2°50.195 -999 4.442118 32.26807 -1.253181
2005-11-28 08:12:32 51°18.146 2°50.172 -999 4.442014 32.267823 -1.253181
2005-11-28 08:12:36 51°18.152 2°50.154 -999 4.44191 32.267577 -1.219471
2005-11-28 08:12:42 51°18.16 2°50.126 -999 4.442014 32.26842 -1.253181
2005-11-28 08:12:47 51°18.167 2°50.103 -999 4.442014 32.26842 -1.253181
2005-11-28 08:12:52 51°18.175 2°50.08 -999 4.44191 32.267577 -1.219471
2005-11-28 08:12:56 51°18.181 2°50.061 -999 4.44191 32.267577 -1.219471
2005-11-28 08:13:02 51°18.19 2°50.033 -999 4.441703 32.266488 -1.219471
2005-11-28 08:13:07 51°18.197 2°50.009 -999 4.441703 32.267084 -1.219471
2005-11-28 08:13:12 51°18.204 2°49.985 -999 4.441703 32.267084 -1.219471
2005-11-28 08:13:16 51°18.21 2°49.966 -999 4.441703 32.267084 -1.219471
2005-11-28 08:13:22 51°18.219 2°49.937 -999 4.441599 32.266838 -1.219471
2005-11-28 08:13:27 51°18.226 2°49.912 -999 4.441599 32.266838 -1.219471
2005-11-28 08:13:32 51°18.233 2°49.888 -999 4.441599 32.266838 -1.253181
2005-11-28 08:13:36 51°18.239 2°49.868 -999 4.441599 32.267434 -1.253181
2005-11-28 08:13:42 51°18.247 2°49.839 -999 4.441495 32.267188 -1.253181
2005-11-28 08:13:47 51°18.254 2°49.815 -999 4.441495 32.267188 -1.253181
2005-11-28 08:13:52 51°18.261 2°49.791 -999 4.441495 32.267188 -1.253181
2005-11-28 08:13:56 51°18.266 2°49.771 -999 4.441495 32.267188 -1.253181
2005-11-28 08:14:02 51°18.274 2°49.742 -999 4.441391 32.266941 -1.219471
2005-11-28 08:14:07 51°18.281 2°49.718 -999 4.441391 32.266941 -1.219471
2005-11-28 08:14:12 51°18.288 2°49.694 -999 4.441391 32.267538 -1.253181
2005-11-28 08:14:16 51°18.293 2°49.675 -999 4.441391 32.267538 -1.253181
2005-11-28 08:14:22 51°18.302 2°49.646 -999 4.441391 32.267538 -1.219471
2005-11-28 08:14:27 51°18.309 2°49.622 -999 4.441288 32.266695 -1.253181
2005-11-28 08:14:32 51°18.316 2°49.598 -999 4.441288 32.267291 -1.253181
2005-11-28 08:14:36 51°18.321 2°49.579 -999 4.441288 32.267291 -1.253181
2005-11-28 08:14:42 51°18.329 2°49.551 -999 4.44108 32.265606 -1.253181
2005-11-28 08:14:47 51°18.336 2°49.527 -999 4.44108 32.265606 -1.253181
2005-11-28 08:14:52 51°18.342 2°49.504 -999 4.440976 32.264763 -1.219471
2005-11-28 08:14:56 51°18.347 2°49.484 -999 4.44108 32.266202 -1.253181
2005-11-28 08:15:02 51°18.355 2°49.456 -999 4.44108 32.266202 -1.253181
2005-11-28 08:15:07 51°18.362 2°49.432 -999 4.440976 32.266552 -1.253181
2005-11-28 08:15:12 51°18.369 2°49.409 -999 4.440976 32.266552 -1.253181
2005-11-28 08:15:16 51°18.373 2°49.391 -999 4.440976 32.266552 -1.253181
2005-11-28 08:15:22 51°18.38 2°49.364 -999 4.440976 32.266552 -1.253181
2005-11-28 08:15:27 51°18.386 2°49.339 -999 4.440873 32.266306 -1.219471
2005-11-28 08:15:32 51°18.393 2°49.316 -999 4.440873 32.266902 -1.219471
2005-11-28 08:15:36 51°18.398 2°49.297 -999 4.440873 32.266902 -1.253181
2005-11-28 08:15:42 51°18.407 2°49.269 -999 4.440665 32.265813 -1.253181
2005-11-28 08:15:47 51°18.413 2°49.245 -999 4.440665 32.265813 -1.253181
2005-11-28 08:15:52 51°18.42 2°49.223 -999 4.440769 32.266656 -1.253181
2005-11-28 08:15:56 51°18.425 2°49.203 -999 4.440665 32.266409 -1.219471
2005-11-28 08:16:02 51°18.433 2°49.176 -999 4.440665 32.267006 -1.219471
2005-11-28 08:16:07 51°18.439 2°49.152 -999 4.440562 32.266163 -1.219471
2005-11-28 08:16:12 51°18.446 2°49.129 -999 4.440562 32.266759 -1.219471
2005-11-28 08:16:16 51°18.451 2°49.11 -999 4.440562 32.266759 -1.219471
2005-11-28 08:16:22 51°18.459 2°49.083 -999 4.440458 32.265916 -1.253181
2005-11-28 08:16:27 51°18.465 2°49.06 -999 4.440458 32.266513 -1.253181
2005-11-28 08:16:32 51°18.471 2°49.036 -999 4.440458 32.266513 -1.219471
2005-11-28 08:16:36 51°18.476 2°49.017 -999 4.440354 32.266266 -1.219471
2005-11-28 08:16:42 51°18.485 2°48.989 -999 4.440458 32.267109 -1.253181
2005-11-28 08:16:47 51°18.492 2°48.966 -999 4.440458 32.267109 -1.253181
2005-11-28 08:16:52 51°18.498 2°48.942 -999 4.440354 32.266266 -1.253181
2005-11-28 08:16:56 51°18.504 2°48.924 -999 4.44025 32.265424 -1.253181
2005-11-28 08:17:02 51°18.511 2°48.896 -999 4.44025 32.26602 -1.219471
2005-11-28 08:17:06 51°18.517 2°48.877 -999 4.440147 32.265774 -1.253181
2005-11-28 08:17:12 51°18.525 2°48.849 -999 4.440147 32.265774 -1.219471
2005-11-28 08:17:16 51°18.53 2°48.831 -999 4.440147 32.265774 -1.219471
2005-11-28 08:17:22 51°18.538 2°48.803 -999 4.440043 32.265527 -1.253181
2005-11-28 08:17:27 51°18.545 2°48.779 -999 4.440147 32.26637 -1.253181
2005-11-28 08:17:32 51°18.551 2°48.755 -999 4.440043 32.265527 -1.253181
2005-11-28 08:17:36 51°18.557 2°48.737 -999 4.440043 32.266124 -1.253181
2005-11-28 08:17:42 51°18.564 2°48.709 -999 4.440043 32.266124 -1.253181
2005-11-28 08:17:47 51°18.57 2°48.687 -999 4.440043 32.266124 -1.253181
2005-11-28 08:17:52 51°18.576 2°48.664 -999 4.439835 32.265034 -1.219471
2005-11-28 08:17:56 51°18.581 2°48.645 -999 4.439939 32.265877 -1.253181
2005-11-28 08:18:02 51°18.589 2°48.618 -999 4.439835 32.265631 -1.253181
2005-11-28 08:18:07 51°18.596 2°48.596 -999 4.439835 32.265034 -1.253181
2005-11-28 08:18:12 51°18.603 2°48.573 -999 4.439732 32.264788 -1.253181
2005-11-28 08:18:16 51°18.608 2°48.555 -999 4.439732 32.264788 -1.253181
2005-11-28 08:18:22 51°18.616 2°48.527 -999 4.439732 32.264788 -1.253181
2005-11-28 08:18:27 51°18.623 2°48.503 -999 4.439732 32.265384 -1.219471
2005-11-28 08:18:32 51°18.63 2°48.481 -999 4.439732 32.265384 -1.219471
2005-11-28 08:18:36 51°18.635 2°48.462 -999 4.439628 32.264542 -1.253181
2005-11-28 08:18:42 51°18.643 2°48.435 -999 4.43942 32.264049 -1.253181
2005-11-28 08:18:46 51°18.648 2°48.416 -999 4.43942 32.264049 -1.253181
2005-11-28 08:18:52 51°18.656 2°48.388 -999 4.439628 32.265735 -1.253181
2005-11-28 08:18:56 51°18.661 2°48.369 -999 4.439524 32.264892 -1.253181
2005-11-28 08:19:02 51°18.67 2°48.341 -999 4.439524 32.264892 -1.253181
2005-11-28 08:19:07 51°18.676 2°48.317 -999 4.439628 32.266331 -1.253181
2005-11-28 08:19:12 51°18.683 2°48.295 -999 4.43942 32.264645 -1.253181
2005-11-28 08:19:16 51°18.689 2°48.276 -999 4.43942 32.264645 -1.253181
2005-11-28 08:19:22 51°18.697 2°48.246 -999 4.439524 32.266085 -1.253181
2005-11-28 08:19:27 51°18.703 2°48.223 -999 4.439213 32.263556 -1.253181
2005-11-28 08:19:32 51°18.709 2°48.2 -999 4.439317 32.264995 -1.253181
2005-11-28 08:19:36 51°18.715 2°48.18 -999 4.43942 32.265838 -1.253181
2005-11-28 08:19:42 51°18.723 2°48.152 -999 4.439317 32.264995 -1.219471
2005-11-28 08:19:47 51°18.73 2°48.129 -999 4.439317 32.264995 -1.219471
2005-11-28 08:19:52 51°18.736 2°48.105 -999 4.439213 32.264749 -1.253181
2005-11-28 08:19:56 51°18.742 2°48.085 -999 4.439213 32.264749 -1.253181
2005-11-28 08:20:02 51°18.75 2°48.056 -999 4.439109 32.263906 -1.219471
2005-11-28 08:20:07 51°18.757 2°48.032 -999 4.439213 32.264749 -1.253181
2005-11-28 08:20:12 51°18.763 2°48.009 -999 4.439005 32.263659 -1.253181
2005-11-28 08:20:16 51°18.769 2°47.99 -999 4.439005 32.263659 -1.253181
2005-11-28 08:20:22 51°18.777 2°47.96 -999 4.439109 32.264503 -1.253181
2005-11-28 08:20:27 51°18.783 2°47.937 -999 4.439005 32.264256 -1.253181
2005-11-28 08:20:32 51°18.79 2°47.912 -999 4.439005 32.264853 -1.253181
2005-11-28 08:20:36 51°18.795 2°47.893 -999 4.439005 32.264853 -1.253181
2005-11-28 08:20:42 51°18.803 2°47.865 -999 4.438902 32.264606 -1.253181
2005-11-28 08:20:47 51°18.81 2°47.84 -999 4.438902 32.264606 -1.253181
2005-11-28 08:20:52 51°18.816 2°47.817 -999 4.438902 32.264606 -1.253181
2005-11-28 08:20:56 51°18.822 2°47.797 -999 4.438798 32.26436 -1.253181
2005-11-28 08:21:02 51°18.829 2°47.77 -999 4.438902 32.2658 -1.253181
2005-11-28 08:21:07 51°18.836 2°47.746 -999 4.438694 32.264113 -1.253181
2005-11-28 08:21:12 51°18.843 2°47.723 -999 4.438694 32.264113 -1.253181
2005-11-28 08:21:17 51°18.85 2°47.698 -999 4.438694 32.264113 -1.253181
2005-11-28 08:21:22 51°18.856 2°47.676 -999 4.438694 32.26471 -1.219471
2005-11-28 08:21:27 51°18.862 2°47.652 -999 4.438694 32.264113 -1.253181
2005-11-28 08:21:32 51°18.869 2°47.628 -999 4.438487 32.262427 -1.253181
2005-11-28 08:21:36 51°18.875 2°47.609 -999 4.43859 32.26327 -1.253181
2005-11-28 08:21:42 51°18.883 2°47.581 -999 4.438487 32.263024 -1.253181
2005-11-28 08:21:47 51°18.889 2°47.558 -999 4.438487 32.263024 -1.253181
2005-11-28 08:21:52 51°18.896 2°47.534 -999 4.438487 32.263621 -1.219471
2005-11-28 08:21:56 51°18.901 2°47.514 -999 4.438487 32.264217 -1.219471
2005-11-28 08:22:02 51°18.909 2°47.485 -999 4.438383 32.263971 -1.219471
2005-11-28 08:22:07 51°18.915 2°47.461 -999 4.438487 32.265411 -1.253181
2005-11-28 08:22:12 51°18.922 2°47.437 -999 4.438279 32.264321 -1.253181
2005-11-28 08:22:16 51°18.927 2°47.417 -999 4.438279 32.264321 -1.253181
2005-11-28 08:22:22 51°18.935 2°47.388 -999 4.438383 32.265164 -1.253181
2005-11-28 08:22:27 51°18.942 2°47.363 -999 4.438383 32.265761 -1.253181
2005-11-28 08:22:32 51°18.948 2°47.338 -999 4.438279 32.264918 -1.253181
2005-11-28 08:22:36 51°18.953 2°47.318 -999 4.438279 32.264918 -1.253181
2005-11-28 08:22:42 51°18.96 2°47.289 -999 4.438175 32.264075 -1.253181
2005-11-28 08:22:47 51°18.966 2°47.265 -999 4.438175 32.264075 -1.253181
2005-11-28 08:22:52 51°18.973 2°47.24 -999 4.438175 32.264671 -1.253181
2005-11-28 08:22:56 51°18.978 2°47.221 -999 4.438072 32.263828 -1.219471
2005-11-28 08:23:02 51°18.986 2°47.192 -999 4.438175 32.264671 -1.253181
2005-11-28 08:23:07 51°18.992 2°47.167 -999 4.437968 32.263582 -1.219471
2005-11-28 08:23:12 51°18.998 2°47.143 -999 4.437968 32.263582 -1.253181
2005-11-28 08:23:16 51°19.003 2°47.123 -999 4.437968 32.263582 -1.253181
2005-11-28 08:23:22 51°19.011 2°47.094 -999 4.437864 32.262739 -1.253181
2005-11-28 08:23:27 51°19.018 2°47.07 -999 4.437968 32.264179 -1.253181
2005-11-28 08:23:32 51°19.024 2°47.045 -999 4.437864 32.263335 -1.219471
2005-11-28 08:23:36 51°19.029 2°47.025 -999 4.437864 32.263932 -1.219471
2005-11-28 08:23:42 51°19.038 2°46.996 -999 4.437864 32.264529 -1.253181
2005-11-28 08:23:47 51°19.045 2°46.972 -999 4.437864 32.264529 -1.253181
2005-11-28 08:23:52 51°19.052 2°46.948 -999 4.43776 32.263089 -1.253181
2005-11-28 08:23:56 51°19.058 2°46.928 -999 4.43776 32.264283 -1.253181
2005-11-28 08:24:02 51°19.066 2°46.898 -999 4.437657 32.263439 -1.219471
2005-11-28 08:24:07 51°19.073 2°46.875 -999 4.43776 32.264879 -1.253181
2005-11-28 08:24:12 51°19.08 2°46.851 -999 4.437553 32.263193 -1.253181
2005-11-28 08:24:16 51°19.086 2°46.831 -999 4.437553 32.263193 -1.253181
2005-11-28 08:24:22 51°19.094 2°46.802 -999 4.437553 32.26379 -1.253181
2005-11-28 08:24:27 51°19.1 2°46.777 -999 4.437449 32.262946 -1.253181
2005-11-28 08:24:32 51°19.107 2°46.753 -999 4.437553 32.264387 -1.219471
2005-11-28 08:24:36 51°19.113 2°46.734 -999 4.437553 32.264387 -1.253181
2005-11-28 08:24:42 51°19.121 2°46.705 -999 4.437345 32.2627 -1.253181
2005-11-28 08:24:47 51°19.127 2°46.68 -999 4.437345 32.2627 -1.253181
2005-11-28 08:24:52 51°19.134 2°46.655 -999 4.437449 32.263543 -1.253181
2005-11-28 08:24:56 51°19.14 2°46.636 -999 4.437345 32.263297 -1.253181
2005-11-28 08:25:02 51°19.148 2°46.607 -999 4.437345 32.263297 -1.253181
2005-11-28 08:25:07 51°19.155 2°46.582 -999 4.437345 32.263894 -1.253181
2005-11-28 08:25:12 51°19.162 2°46.559 -999 4.437138 32.262804 -1.219471
2005-11-28 08:25:16 51°19.168 2°46.539 -999 4.437138 32.262804 -1.219471
2005-11-28 08:25:22 51°19.176 2°46.509 -999 4.437242 32.263647 -1.253181
2005-11-28 08:25:27 51°19.183 2°46.486 -999 4.437138 32.263401 -1.253181
2005-11-28 08:25:32 51°19.19 2°46.461 -999 4.437138 32.263401 -1.253181
2005-11-28 08:25:36 51°19.195 2°46.441 -999 4.437138 32.263998 -1.253181
2005-11-28 08:25:42 51°19.203 2°46.413 -999 4.437034 32.262557 -1.253181
2005-11-28 08:25:46 51°19.209 2°46.394 -999 4.437034 32.262557 -1.253181
2005-11-28 08:25:52 51°19.218 2°46.365 -999 4.437034 32.263154 -1.253181
2005-11-28 08:25:56 51°19.224 2°46.346 -999 4.437034 32.263154 -1.253181
2005-11-28 08:26:02 51°19.231 2°46.317 -999 4.436827 32.262064 -1.253181
2005-11-28 08:26:07 51°19.238 2°46.294 -999 4.436931 32.263505 -1.253181
2005-11-28 08:26:12 51°19.245 2°46.27 -999 4.436827 32.262661 -1.253181
2005-11-28 08:26:16 51°19.251 2°46.251 -999 4.436827 32.262661 -1.253181
2005-11-28 08:26:22 51°19.259 2°46.223 -999 4.436827 32.263258 -1.253181
2005-11-28 08:26:27 51°19.266 2°46.199 -999 4.436827 32.263258 -1.219471
2005-11-28 08:26:32 51°19.273 2°46.175 -999 4.436723 32.262415 -1.253181
2005-11-28 08:26:36 51°19.278 2°46.156 -999 4.436619 32.262168 -1.253181
2005-11-28 08:26:42 51°19.286 2°46.127 -999 4.436516 32.261325 -1.219471
2005-11-28 08:26:47 51°19.292 2°46.103 -999 4.436516 32.261325 -1.219471
2005-11-28 08:26:52 51°19.298 2°46.078 -999 4.436723 32.263609 -1.253181
2005-11-28 08:26:56 51°19.303 2°46.059 -999 4.436516 32.262519 -1.219471
2005-11-28 08:27:02 51°19.311 2°46.031 -999 4.436619 32.262765 -1.219471
2005-11-28 08:27:07 51°19.317 2°46.007 -999 4.436412 32.262272 -1.253181
2005-11-28 08:27:12 51°19.324 2°45.983 -999 4.436412 32.262272 -1.253181
2005-11-28 08:27:16 51°19.329 2°45.963 -999 4.436412 32.262272 -1.253181
2005-11-28 08:27:22 51°19.337 2°45.934 -999 4.436619 32.263959 -1.253181
2005-11-28 08:27:27 51°19.343 2°45.911 -999 4.436412 32.262272 -1.253181
2005-11-28 08:27:32 51°19.35 2°45.887 -999 4.436516 32.263116 -1.253181
2005-11-28 08:27:36 51°19.355 2°45.868 -999 4.436308 32.261429 -1.253181
2005-11-28 08:27:42 51°19.363 2°45.839 -999 4.436308 32.262026 -1.219471
2005-11-28 08:27:47 51°19.369 2°45.815 -999 4.436308 32.262026 -1.219471
2005-11-28 08:27:52 51°19.375 2°45.79 -999 4.436308 32.262026 -1.219471
2005-11-28 08:27:56 51°19.381 2°45.771 -999 4.436308 32.262026 -1.253181
2005-11-28 08:28:02 51°19.388 2°45.742 -999 4.436204 32.26178 -1.219471
2005-11-28 08:28:07 51°19.395 2°45.719 -999 4.436204 32.262377 -1.253181
2005-11-28 08:28:12 51°19.401 2°45.694 -999 4.436204 32.262377 -1.253181
2005-11-28 08:28:16 51°19.407 2°45.675 -999 4.436204 32.262377 -1.253181
2005-11-28 08:28:22 51°19.414 2°45.645 -999 4.436204 32.262974 -1.219471
2005-11-28 08:28:27 51°19.421 2°45.623 -999 4.436101 32.261533 -1.219471
2005-11-28 08:28:32 51°19.426 2°45.599 -999 4.435997 32.261884 -1.253181
2005-11-28 08:28:36 51°19.431 2°45.58 -999 4.435997 32.261884 -1.253181
2005-11-28 08:28:42 51°19.439 2°45.551 -999 4.435893 32.26104 -1.219471
2005-11-28 08:28:47 51°19.445 2°45.529 -999 4.435893 32.26104 -1.219471
2005-11-28 08:28:52 51°19.451 2°45.504 -999 4.435789 32.261391 -1.253181
2005-11-28 08:28:56 51°19.456 2°45.485 -999 4.435997 32.263078 -1.219471
2005-11-28 08:29:02 51°19.463 2°45.457 -999 4.435893 32.262831 -1.253181
2005-11-28 08:29:07 51°19.469 2°45.432 -999 4.435789 32.261988 -1.253181
2005-11-28 08:29:12 51°19.476 2°45.408 -999 4.435789 32.262585 -1.219471
2005-11-28 08:29:16 51°19.48 2°45.389 -999 4.435789 32.262585 -1.219471
2005-11-28 08:29:22 51°19.488 2°45.361 -999 4.435789 32.261988 -1.219471
2005-11-28 08:29:27 51°19.494 2°45.337 -999 4.435686 32.261741 -1.219471
2005-11-28 08:29:32 51°19.5 2°45.314 -999 4.435686 32.261741 -1.219471
2005-11-28 08:29:36 51°19.506 2°45.295 -999 4.435686 32.261741 -1.253181
2005-11-28 08:29:42 51°19.513 2°45.267 -999 4.435582 32.260898 -1.253181
2005-11-28 08:29:47 51°19.52 2°45.243 -999 4.435582 32.260898 -1.253181
2005-11-28 08:29:52 51°19.526 2°45.219 -999 4.435478 32.260651 -1.253181
2005-11-28 08:29:57 51°19.532 2°45.195 -999 4.435582 32.261495 -1.253181
2005-11-28 08:30:02 51°19.539 2°45.171 -999 4.435478 32.260651 -1.253181
2005-11-28 08:30:07 51°19.544 2°45.148 -999 4.435478 32.261845 -1.219471
2005-11-28 08:30:12 51°19.551 2°45.123 -999 4.435374 32.261002 -1.219471
2005-11-28 08:30:16 51°19.556 2°45.105 -999 4.435374 32.261002 -1.219471
2005-11-28 08:30:22 51°19.563 2°45.076 -999 4.435374 32.261599 -1.253181
2005-11-28 08:30:27 51°19.569 2°45.053 -999 4.435478 32.262443 -1.219471
2005-11-28 08:30:32 51°19.576 2°45.029 -999 4.435271 32.261352 -1.253181
2005-11-28 08:30:36 51°19.581 2°45.009 -999 4.435374 32.262196 -1.219471
2005-11-28 08:30:42 51°19.588 2°44.981 -999 4.435271 32.26195 -1.253181
2005-11-28 08:30:47 51°19.595 2°44.957 -999 4.435271 32.26195 -1.253181
2005-11-28 08:30:52 51°19.601 2°44.934 -999 4.435167 32.261106 -1.253181
2005-11-28 08:30:56 51°19.606 2°44.914 -999 4.435167 32.261703 -1.253181
2005-11-28 08:31:02 51°19.614 2°44.885 -999 4.435167 32.261703 -1.219471
2005-11-28 08:31:07 51°19.62 2°44.861 -999 4.435271 32.263144 -1.253181
2005-11-28 08:31:12 51°19.627 2°44.837 -999 4.435063 32.261457 -1.253181
2005-11-28 08:31:16 51°19.632 2°44.817 -999 4.435063 32.261457 -1.253181
2005-11-28 08:31:22 51°19.64 2°44.788 -999 4.435063 32.262054 -1.253181
2005-11-28 08:31:27 51°19.646 2°44.765 -999 4.434959 32.26121 -1.219471
2005-11-28 08:31:32 51°19.652 2°44.74 -999 4.435063 32.262054 -1.219471
2005-11-28 08:31:36 51°19.657 2°44.722 -999 4.434856 32.261561 -1.253181
2005-11-28 08:31:42 51°19.664 2°44.692 -999 4.434959 32.261807 -1.219471
2005-11-28 08:31:47 51°19.671 2°44.668 -999 4.434959 32.261807 -1.219471
2005-11-28 08:31:52 51°19.677 2°44.645 -999 4.434856 32.261561 -1.253181
2005-11-28 08:31:56 51°19.682 2°44.625 -999 4.434856 32.261561 -1.253181
2005-11-28 08:32:02 51°19.69 2°44.597 -999 4.434856 32.261561 -1.253181
2005-11-28 08:32:07 51°19.697 2°44.573 -999 4.434752 32.261314 -1.219471
2005-11-28 08:32:12 51°19.704 2°44.549 -999 4.434752 32.261314 -1.253181
2005-11-28 08:32:16 51°19.709 2°44.53 -999 4.434752 32.261314 -1.253181
2005-11-28 08:32:22 51°19.717 2°44.501 -999 4.434648 32.261068 -1.253181
2005-11-28 08:32:27 51°19.723 2°44.476 -999 4.434648 32.261665 -1.219471
2005-11-28 08:32:32 51°19.73 2°44.452 -999 4.434752 32.262509 -1.253181
2005-11-28 08:32:36 51°19.735 2°44.433 -999 4.434441 32.260575 -1.253181
2005-11-28 08:32:42 51°19.743 2°44.403 -999 4.434544 32.261419 -1.253181
2005-11-28 08:32:47 51°19.749 2°44.379 -999 4.434544 32.261419 -1.253181
2005-11-28 08:32:52 51°19.756 2°44.355 -999 4.434544 32.262016 -1.219471
2005-11-28 08:32:56 51°19.761 2°44.336 -999 4.434544 32.262016 -1.253181
2005-11-28 08:33:02 51°19.769 2°44.306 -999 4.434441 32.261172 -1.219471
2005-11-28 08:33:07 51°19.775 2°44.282 -999 4.434337 32.260926 -1.253181
2005-11-28 08:33:12 51°19.782 2°44.258 -999 4.434337 32.260926 -1.253181
2005-11-28 08:33:16 51°19.787 2°44.239 -999 4.434337 32.260926 -1.253181
2005-11-28 08:33:22 51°19.794 2°44.21 -999 4.434233 32.260679 -1.253181
2005-11-28 08:33:27 51°19.801 2°44.186 -999 4.434337 32.261523 -1.253181
2005-11-28 08:33:32 51°19.807 2°44.161 -999 4.434129 32.259835 -1.219471
2005-11-28 08:33:36 51°19.813 2°44.142 -999 4.434233 32.261874 -1.219471
2005-11-28 08:33:42 51°19.821 2°44.113 -999 4.434233 32.261277 -1.253181
2005-11-28 08:33:47 51°19.827 2°44.089 -999 4.434233 32.261277 -1.253181
2005-11-28 08:33:52 51°19.834 2°44.065 -999 4.434129 32.26103 -1.253181
2005-11-28 08:33:56 51°19.84 2°44.046 -999 4.434129 32.261628 -1.253181
2005-11-28 08:34:02 51°19.848 2°44.016 -999 4.434129 32.261628 -1.219471
2005-11-28 08:34:07 51°19.854 2°43.992 -999 4.434026 32.260784 -1.253181
2005-11-28 08:34:12 51°19.861 2°43.968 -999 4.434026 32.261381 -1.253181
2005-11-28 08:34:16 51°19.867 2°43.948 -999 4.434026 32.261381 -1.253181
2005-11-28 08:34:22 51°19.875 2°43.918 -999 4.434129 32.262225 -1.253181
2005-11-28 08:34:27 51°19.881 2°43.895 -999 4.433922 32.261135 -1.219471
2005-11-28 08:34:32 51°19.888 2°43.87 -999 4.433922 32.261732 -1.219471
2005-11-28 08:34:36 51°19.893 2°43.851 -999 4.433818 32.260888 -1.253181
2005-11-28 08:34:42 51°19.901 2°43.821 -999 4.433818 32.261486 -1.253181
2005-11-28 08:34:47 51°19.908 2°43.798 -999 4.433818 32.261486 -1.253181
2005-11-28 08:34:52 51°19.914 2°43.774 -999 4.433818 32.262083 -1.253181
2005-11-28 08:34:56 51°19.919 2°43.754 -999 4.433818 32.261486 -1.219471
2005-11-28 08:35:02 51°19.927 2°43.725 -999 4.433611 32.260993 -1.253181
2005-11-28 08:35:07 51°19.933 2°43.701 -999 4.433611 32.26159 -1.253181
2005-11-28 08:35:12 51°19.94 2°43.677 -999 4.433715 32.262434 -1.253181
2005-11-28 08:35:16 51°19.945 2°43.658 -999 4.433715 32.262434 -1.253181
2005-11-28 08:35:22 51°19.953 2°43.629 -999 4.433507 32.260746 -1.219471
2005-11-28 08:35:27 51°19.96 2°43.605 -999 4.433611 32.26159 -1.253181
2005-11-28 08:35:32 51°19.967 2°43.581 -999 4.433507 32.260746 -1.253181
2005-11-28 08:35:36 51°19.972 2°43.562 -999 4.433507 32.260746 -1.253181
2005-11-28 08:35:42 51°19.98 2°43.533 -999 4.433403 32.259902 -1.253181
2005-11-28 08:35:47 51°19.987 2°43.508 -999 4.433403 32.259902 -1.253181
2005-11-28 08:35:52 51°19.994 2°43.484 -999 4.433403 32.2605 -1.253181
2005-11-28 08:35:56 51°19.999 2°43.464 -999 4.433403 32.2605 -1.253181
2005-11-28 08:36:02 51°20.007 2°43.435 -999 4.4333 32.259656 -1.219471
2005-11-28 08:36:07 51°20.014 2°43.411 -999 4.433196 32.258812 -1.253181
2005-11-28 08:36:12 51°20.02 2°43.386 -999 4.433196 32.259409 -1.219471
2005-11-28 08:36:16 51°20.025 2°43.367 -999 4.433196 32.259409 -1.219471
2005-11-28 08:36:22 51°20.034 2°43.338 -999 4.4333 32.260851 -1.219471
2005-11-28 08:36:27 51°20.041 2°43.314 -999 4.433196 32.260007 -1.219471
2005-11-28 08:36:32 51°20.048 2°43.29 -999 4.433196 32.260604 -1.219471
2005-11-28 08:36:36 51°20.052 2°43.271 -999 4.433092 32.260358 -1.219471
2005-11-28 08:36:42 51°20.061 2°43.242 -999 4.433196 32.261202 -1.219471
2005-11-28 08:36:47 51°20.067 2°43.218 -999 4.433196 32.261202 -1.219471
2005-11-28 08:36:52 51°20.073 2°43.195 -999 4.433092 32.260358 -1.219471
2005-11-28 08:36:56 51°20.079 2°43.175 -999 4.432988 32.260111 -1.219471
2005-11-28 08:37:02 51°20.087 2°43.147 -999 4.432988 32.260111 -1.253181
2005-11-28 08:37:07 51°20.094 2°43.123 -999 4.432988 32.260709 -1.219471
2005-11-28 08:37:12 51°20.1 2°43.099 -999 4.432885 32.259865 -1.219471
2005-11-28 08:37:16 51°20.106 2°43.08 -999 4.432885 32.259865 -1.219471
2005-11-28 08:37:22 51°20.113 2°43.051 -999 4.432885 32.260462 -1.253181
2005-11-28 08:37:27 51°20.12 2°43.027 -999 4.432885 32.26106 -1.219471
2005-11-28 08:37:32 51°20.127 2°43.004 -999 4.432781 32.259618 -1.219471
2005-11-28 08:37:36 51°20.132 2°42.984 -999 4.432781 32.260216 -1.253181
2005-11-28 08:37:42 51°20.14 2°42.956 -999 4.432677 32.259969 -1.253181
2005-11-28 08:37:47 51°20.146 2°42.932 -999 4.432677 32.259969 -1.253181
2005-11-28 08:37:52 51°20.153 2°42.908 -999 4.432781 32.260216 -1.219471
2005-11-28 08:37:57 51°20.159 2°42.885 -999 4.432573 32.259723 -1.219471
2005-11-28 08:38:02 51°20.165 2°42.861 -999 4.432573 32.259723 -1.253181
2005-11-28 08:38:07 51°20.171 2°42.837 -999 4.432573 32.26032 -1.253181
2005-11-28 08:38:12 51°20.178 2°42.814 -999 4.43247 32.260074 -1.253181
2005-11-28 08:38:16 51°20.183 2°42.795 -999 4.43247 32.260074 -1.253181
2005-11-28 08:38:22 51°20.191 2°42.766 -999 4.432573 32.260918 -1.253181
2005-11-28 08:38:27 51°20.198 2°42.743 -999 4.432366 32.260425 -1.253181
2005-11-28 08:38:32 51°20.204 2°42.719 -999 4.432366 32.259827 -1.253181
2005-11-28 08:38:36 51°20.209 2°42.7 -999 4.432366 32.260425 -1.219471
2005-11-28 08:38:42 51°20.217 2°42.672 -999 4.432262 32.259581 -1.253181
2005-11-28 08:38:47 51°20.224 2°42.648 -999 4.432262 32.259581 -1.253181
2005-11-28 08:38:52 51°20.23 2°42.625 -999 4.432262 32.258983 -1.253181
2005-11-28 08:38:57 51°20.237 2°42.601 -999 4.432262 32.259581 -1.253181
2005-11-28 08:39:02 51°20.243 2°42.577 -999 4.432262 32.258983 -1.219471
2005-11-28 08:39:07 51°20.25 2°42.554 -999 4.432055 32.25849 -1.219471
2005-11-28 08:39:12 51°20.256 2°42.529 -999 4.432158 32.259932 -1.219471
2005-11-28 08:39:16 51°20.262 2°42.511 -999 4.432158 32.259932 -1.219471
2005-11-28 08:39:22 51°20.27 2°42.482 -999 4.432055 32.259088 -1.253181
2005-11-28 08:39:27 51°20.277 2°42.459 -999 4.431951 32.258841 -1.253181
2005-11-28 08:39:32 51°20.283 2°42.435 -999 4.431951 32.258841 -1.219471
2005-11-28 08:39:36 51°20.288 2°42.416 -999 4.432055 32.259685 -1.219471
2005-11-28 08:39:42 51°20.297 2°42.388 -999 4.431951 32.259439 -1.253181
2005-11-28 08:39:47 51°20.304 2°42.364 -999 4.431951 32.259439 -1.253181
2005-11-28 08:39:52 51°20.31 2°42.341 -999 4.431847 32.258594 -1.219471
2005-11-28 08:39:57 51°20.317 2°42.316 -999 4.432055 32.260881 -1.219471
2005-11-28 08:40:02 51°20.324 2°42.293 -999 4.431847 32.25979 -1.253181
2005-11-28 08:40:07 51°20.33 2°42.269 -999 4.431743 32.258348 -1.219471
2005-11-28 08:40:12 51°20.337 2°42.245 -999 4.431743 32.258946 -1.219471
2005-11-28 08:40:16 51°20.343 2°42.226 -999 4.431743 32.258946 -1.219471
2005-11-28 08:40:22 51°20.35 2°42.198 -999 4.431743 32.259543 -1.253181
2005-11-28 08:40:27 51°20.357 2°42.175 -999 4.43164 32.258699 -1.219471
2005-11-28 08:40:32 51°20.364 2°42.152 -999 4.431743 32.260141 -1.253181
2005-11-28 08:40:36 51°20.369 2°42.133 -999 4.431743 32.260141 -1.253181
2005-11-28 08:40:42 51°20.377 2°42.106 -999 4.431536 32.25905 -1.219471
2005-11-28 08:40:47 51°20.384 2°42.082 -999 4.431536 32.25905 -1.219471
2005-11-28 08:40:52 51°20.39 2°42.059 -999 4.43164 32.259895 -1.219471
2005-11-28 08:40:57 51°20.397 2°42.035 -999 4.431536 32.25905 -1.253181
2005-11-28 08:41:02 51°20.402 2°42.011 -999 4.431432 32.258804 -1.253181
2005-11-28 08:41:07 51°20.408 2°41.987 -999 4.431432 32.259999 -1.253181
2005-11-28 08:41:12 51°20.412 2°41.962 -999 4.431432 32.259999 -1.219471
2005-11-28 08:41:16 51°20.416 2°41.943 -999 4.431432 32.259999 -1.219471
2005-11-28 08:41:22 51°20.421 2°41.913 -999 4.431328 32.259155 -1.253181
2005-11-28 08:41:27 51°20.425 2°41.889 -999 4.431432 32.260597 -1.253181
2005-11-28 08:41:32 51°20.429 2°41.864 -999 4.431121 32.258064 -1.219471
2005-11-28 08:41:36 51°20.432 2°41.844 -999 4.431328 32.259753 -1.253181
2005-11-28 08:41:42 51°20.436 2°41.815 -999 4.431225 32.258909 -1.253181
2005-11-28 08:41:47 51°20.441 2°41.79 -999 4.431225 32.258909 -1.253181
2005-11-28 08:41:52 51°20.445 2°41.766 -999 4.431225 32.259506 -1.253181
2005-11-28 08:41:56 51°20.448 2°41.746 -999 4.431121 32.258662 -1.219471
2005-11-28 08:42:02 51°20.452 2°41.716 -999 4.431017 32.257818 -1.253181
2005-11-28 08:42:07 51°20.457 2°41.691 -999 4.431121 32.25926 -1.219471
2005-11-28 08:42:12 51°20.461 2°41.667 -999 4.431017 32.259013 -1.253181
2005-11-28 08:42:16 51°20.464 2°41.646 -999 4.431017 32.259013 -1.253181
2005-11-28 08:42:22 51°20.469 2°41.617 -999 4.431017 32.259013 -1.253181
2005-11-28 08:42:27 51°20.474 2°41.591 -999 4.430913 32.258767 -1.219471
2005-11-28 08:42:32 51°20.478 2°41.567 -999 4.430913 32.258767 -1.253181
2005-11-28 08:42:36 51°20.481 2°41.547 -999 4.430913 32.259365 -1.253181
2005-11-28 08:42:42 51°20.486 2°41.517 -999 4.43081 32.25852 -1.253181
2005-11-28 08:42:47 51°20.49 2°41.492 -999 4.43081 32.25852 -1.253181
2005-11-28 08:42:52 51°20.494 2°41.467 -999 4.43081 32.259118 -1.219471
2005-11-28 08:42:56 51°20.498 2°41.448 -999 4.430706 32.257676 -1.253181
2005-11-28 08:43:02 51°20.502 2°41.417 -999 4.430602 32.257429 -1.253181
2005-11-28 08:43:07 51°20.507 2°41.393 -999 4.430602 32.257429 -1.253181
2005-11-28 08:43:12 51°20.511 2°41.368 -999 4.430706 32.258872 -1.253181
2005-11-28 08:43:16 51°20.515 2°41.348 -999 4.430706 32.258872 -1.253181
2005-11-28 08:43:22 51°20.52 2°41.318 -999 4.430602 32.258027 -1.253181
2005-11-28 08:43:27 51°20.524 2°41.294 -999 4.430602 32.258625 -1.253181
2005-11-28 08:43:32 51°20.528 2°41.268 -999 4.430499 32.257781 -1.253181
2005-11-28 08:43:36 51°20.532 2°41.248 -999 4.430499 32.258976 -1.219471
2005-11-28 08:43:42 51°20.535 2°41.218 -999 4.430499 32.258378 -1.219471
2005-11-28 08:43:47 51°20.538 2°41.193 -999 4.430499 32.258378 -1.219471
2005-11-28 08:43:52 51°20.54 2°41.167 -999 4.430395 32.258132 -1.253181
2005-11-28 08:43:56 51°20.542 2°41.146 -999 4.430395 32.25873 -1.219471
2005-11-28 08:44:02 51°20.545 2°41.115 -999 4.430291 32.257287 -1.219471
2005-11-28 08:44:07 51°20.548 2°41.089 -999 4.430395 32.259926 -1.253181
2005-11-28 08:44:12 51°20.549 2°41.063 -999 4.430395 32.259328 -1.253181
2005-11-28 08:44:16 51°20.55 2°41.042 -999 4.430395 32.259328 -1.253181
2005-11-28 08:44:22 51°20.553 2°41.012 -999 4.430187 32.258237 -1.253181
2005-11-28 08:44:27 51°20.555 2°40.986 -999 4.430291 32.259081 -1.253181
2005-11-28 08:44:32 51°20.557 2°40.96 -999 4.430187 32.258835 -1.219471
2005-11-28 08:44:36 51°20.559 2°40.94 -999 4.430187 32.258835 -1.253181